Time,TemperatureF,DewpointF,PressureIn,WindDirection,WindDirectionDegrees,WindSpeedMPH,WindSpeedGustMPH,Humidity,HourlyPrecipIn,Conditions,Clouds,dailyrainin,SolarRadiationWatts/m^2,SoftwareType,DateUTC
2013-11-14 00:00:00,42.3,33.2,29.94,SW,220,7.0,12.0,70,0.00,,,0.00,0,WeatherCatV1.23B16,2013-11-14 06:00:00,
2013-11-14 00:02:00,42.3,33.2,29.94,SSW,210,4.0,11.0,70,0.00,,,0.00,0,WeatherCatV1.23B16,2013-11-14 06:02:00,
2013-11-14 00:03:00,42.3,33.2,29.94,SW,219,6.0,14.0,70,0.00,,,0.00,0,WeatherCatV1.23B16,2013-11-14 06:03:00,
2013-11-14 00:04:00,42.3,33.2,29.94,SW,219,5.0,14.0,70,0.00,,,0.00,0,WeatherCatV1.23B16,2013-11-14 06:04:00,
2013-11-14 00:06:00,42.3,33.2,29.94,SW,215,3.0,3.0,70,0.00,,,0.00,0,WeatherCatV1.23B16,2013-11-14 06:06:00,
2013-11-14 00:07:00,42.2,33.5,29.94,SW,217,2.0,6.0,71,0.00,,,0.00,0,WeatherCatV1.23B16,2013-11-14 06:07:00,
2013-11-14 00:09:00,42.1,33.4,29.94,SW,218,6.0,10.0,71,0.00,,,0.00,0,WeatherCatV1.23B16,2013-11-14 06:09:00,
2013-11-14 00:11:00,42.0,33.3,29.94,South,176,8.0,11.0,71,0.00,,,0.00,0,WeatherCatV1.23B16,2013-11-14 06:11:00,
2013-11-14 00:12:00,42.0,33.3,29.94,SW,216,4.0,11.0,71,0.00,,,0.00,0,WeatherCatV1.23B16,2013-11-14 06:12:00,
2013-11-14 00:14:00,42.0,33.3,29.94,SSW,202,2.0,7.0,71,0.00,,,0.00,0,WeatherCatV1.23B16,2013-11-14 06:14:00,
2013-11-14 00:15:00,42.0,33.3,29.93,SSW,199,2.0,7.0,71,0.00,,,0.00,0,WeatherCatV1.23B16,2013-11-14 06:15:00,
2013-11-14 00:17:00,42.0,33.3,29.93,South,187,6.0,10.0,71,0.00,,,0.00,0,WeatherCatV1.23B16,2013-11-14 06:17:00,
2013-11-14 00:19:00,41.9,33.2,29.94,SSW,211,7.0,10.0,71,0.00,,,0.00,0,WeatherCatV1.23B16,2013-11-14 06:19:00,
2013-11-14 00:20:00,41.9,33.2,29.94,SSW,208,4.0,10.0,71,0.00,,,0.00,0,WeatherCatV1.23B16,2013-11-14 06:20:00,
2013-11-14 00:22:00,41.8,33.1,29.94,SSW,210,7.0,10.0,71,0.00,,,0.00,0,WeatherCatV1.23B16,2013-11-14 06:22:00,
2013-11-14 00:23:00,41.8,33.1,29.94,SW,215,6.0,10.0,71,0.00,,,0.00,0,WeatherCatV1.23B16,2013-11-14 06:23:00,
2013-11-14 00:24:00,41.8,33.1,29.94,SSW,196,6.0,12.0,71,0.00,,,0.00,0,WeatherCatV1.23B16,2013-11-14 06:24:00,
2013-11-14 00:25:00,41.8,33.1,29.93,SSW,194,10.0,12.0,71,0.00,,,0.00,0,WeatherCatV1.23B16,2013-11-14 06:25:00,
2013-11-14 00:27:00,41.8,33.1,29.93,SSW,207,4.0,12.0,71,0.00,,,0.00,0,WeatherCatV1.23B16,2013-11-14 06:27:00,
2013-11-14 00:28:00,41.8,33.1,29.93,SW,221,6.0,12.0,71,0.00,,,0.00,0,WeatherCatV1.23B16,2013-11-14 06:28:00,
2013-11-14 00:29:00,41.8,33.1,29.93,SSW,209,4.0,7.0,71,0.00,,,0.00,0,WeatherCatV1.23B16,2013-11-14 06:29:00,
2013-11-14 00:30:00,41.7,33.0,29.93,South,186,4.0,9.0,71,0.00,,,0.00,0,WeatherCatV1.23B16,2013-11-14 06:30:00,
2013-11-14 00:32:00,41.6,32.9,29.93,SW,229,7.0,11.0,71,0.00,,,0.00,0,WeatherCatV1.23B16,2013-11-14 06:32:00,
2013-11-14 00:33:00,41.7,33.0,29.93,SW,221,7.0,11.0,71,0.00,,,0.00,0,WeatherCatV1.23B16,2013-11-14 06:33:00,
2013-11-14 00:35:00,41.7,33.0,29.93,SSW,199,4.0,12.0,71,0.00,,,0.00,0,WeatherCatV1.23B16,2013-11-14 06:35:00,
2013-11-14 00:36:00,41.7,33.0,29.93,SSW,202,5.0,6.0,71,0.00,,,0.00,0,WeatherCatV1.23B16,2013-11-14 06:36:00,
2013-11-14 00:37:00,41.6,32.9,29.93,SSW,211,10.0,10.0,71,0.00,,,0.00,0,WeatherCatV1.23B16,2013-11-14 06:37:00,
2013-11-14 00:38:00,41.6,32.9,29.93,SSW,206,6.0,13.0,71,0.00,,,0.00,0,WeatherCatV1.23B16,2013-11-14 06:38:00,
2013-11-14 00:40:00,41.6,32.9,29.93,SSW,206,8.0,9.0,71,0.00,,,0.00,0,WeatherCatV1.23B16,2013-11-14 06:40:00,
2013-11-14 00:41:00,41.6,32.5,29.93,SSW,202,5.0,12.0,70,0.00,,,0.00,0,WeatherCatV1.23B16,2013-11-14 06:41:00,
2013-11-14 00:42:00,41.6,32.5,29.93,SSW,207,11.0,12.0,70,0.00,,,0.00,0,WeatherCatV1.23B16,2013-11-14 06:42:00,
2013-11-14 00:43:00,41.6,32.5,29.93,SSW,205,10.0,12.0,70,0.00,,,0.00,0,WeatherCatV1.23B16,2013-11-14 06:43:00,
2013-11-14 00:45:00,41.6,32.5,29.93,South,178,3.0,10.0,70,0.00,,,0.00,0,WeatherCatV1.23B16,2013-11-14 06:45:00,
2013-11-14 00:46:00,41.6,32.5,29.93,SSW,203,3.0,13.0,70,0.00,,,0.00,0,WeatherCatV1.23B16,2013-11-14 06:46:00,
2013-11-14 00:47:00,41.6,32.5,29.93,SW,225,3.0,11.0,70,0.00,,,0.00,0,WeatherCatV1.23B16,2013-11-14 06:47:00,
2013-11-14 00:48:00,41.5,32.5,29.92,SW,225,4.0,11.0,70,0.00,,,0.00,0,WeatherCatV1.23B16,2013-11-14 06:48:00,
2013-11-14 00:50:00,41.5,32.5,29.92,SW,235,6.0,14.0,70,0.00,,,0.00,0,WeatherCatV1.23B16,2013-11-14 06:50:00,
2013-11-14 00:51:00,41.5,32.5,29.92,SSW,212,4.0,10.0,70,0.00,,,0.00,0,WeatherCatV1.23B16,2013-11-14 06:51:00,
2013-11-14 00:52:00,41.5,32.5,29.92,SSW,211,10.0,10.0,70,0.00,,,0.00,0,WeatherCatV1.23B16,2013-11-14 06:52:00,
2013-11-14 00:53:00,41.5,32.5,29.93,SSW,210,8.0,10.0,70,0.00,,,0.00,0,WeatherCatV1.23B16,2013-11-14 06:53:00,
2013-11-14 00:54:00,41.5,32.5,29.92,SW,224,4.0,10.0,70,0.00,,,0.00,0,WeatherCatV1.23B16,2013-11-14 06:54:00,
2013-11-14 00:55:00,41.5,32.5,29.92,SW,218,5.0,10.0,70,0.00,,,0.00,0,WeatherCatV1.23B16,2013-11-14 06:55:00,
2013-11-14 00:56:00,41.5,32.5,29.92,SSW,211,5.0,7.0,70,0.00,,,0.00,0,WeatherCatV1.23B16,2013-11-14 06:56:00,
2013-11-14 00:57:00,41.5,32.5,29.93,SW,217,2.0,11.0,70,0.00,,,0.00,0,WeatherCatV1.23B16,2013-11-14 06:57:00,
2013-11-14 00:58:00,41.4,32.4,29.93,SW,215,2.0,11.0,70,0.00,,,0.00,0,WeatherCatV1.23B16,2013-11-14 06:58:00,
2013-11-14 00:59:00,41.4,32.4,29.93,SW,217,5.0,11.0,70,0.00,,,0.00,0,WeatherCatV1.23B16,2013-11-14 06:59:00,
2013-11-14 01:01:00,41.4,32.4,29.93,SSW,202,6.0,6.0,70,0.00,,,0.00,0,WeatherCatV1.23B16,2013-11-14 07:01:00,
2013-11-14 01:02:00,41.3,32.3,29.93,SSW,202,2.0,6.0,70,0.00,,,0.00,0,WeatherCatV1.23B16,2013-11-14 07:02:00,
2013-11-14 01:03:00,41.3,32.3,29.93,SSW,211,8.0,8.0,70,0.00,,,0.00,0,WeatherCatV1.23B16,2013-11-14 07:03:00,
2013-11-14 01:04:00,41.3,32.3,29.93,SSW,213,2.0,8.0,70,0.00,,,0.00,0,WeatherCatV1.23B16,2013-11-14 07:04:00,
2013-11-14 01:06:00,41.2,32.2,29.93,SW,225,7.0,8.0,70,0.00,,,0.00,0,WeatherCatV1.23B16,2013-11-14 07:06:00,
2013-11-14 01:07:00,41.2,32.2,29.93,SW,225,10.0,10.0,70,0.00,,,0.00,0,WeatherCatV1.23B16,2013-11-14 07:07:00,
2013-11-14 01:08:00,41.2,32.2,29.93,SW,219,4.0,10.0,70,0.00,,,0.00,0,WeatherCatV1.23B16,2013-11-14 07:08:00,
2013-11-14 01:09:00,41.1,32.1,29.93,SW,215,5.0,10.0,70,0.00,,,0.00,0,WeatherCatV1.23B16,2013-11-14 07:09:00,
2013-11-14 01:11:00,41.1,32.1,29.93,SW,221,4.0,6.0,70,0.00,,,0.00,0,WeatherCatV1.23B16,2013-11-14 07:11:00,
2013-11-14 01:13:00,41.1,32.1,29.93,SW,221,4.0,7.0,70,0.00,,,0.00,0,WeatherCatV1.23B16,2013-11-14 07:13:00,
2013-11-14 01:15:00,41.0,32.0,29.93,SW,218,5.0,11.0,70,0.00,,,0.00,0,WeatherCatV1.23B16,2013-11-14 07:15:00,
2013-11-14 01:16:00,41.1,32.1,29.93,SW,234,6.0,11.0,70,0.00,,,0.00,0,WeatherCatV1.23B16,2013-11-14 07:16:00,
2013-11-14 01:18:00,41.1,32.1,29.93,SW,232,5.0,6.0,70,0.00,,,0.00,0,WeatherCatV1.23B16,2013-11-14 07:18:00,
2013-11-14 01:19:00,41.0,32.0,29.93,SW,231,4.0,6.0,70,0.00,,,0.00,0,WeatherCatV1.23B16,2013-11-14 07:19:00,
2013-11-14 01:20:00,41.0,32.0,29.93,SW,233,5.0,5.0,70,0.00,,,0.00,0,WeatherCatV1.23B16,2013-11-14 07:20:00,
2013-11-14 01:21:00,41.0,32.0,29.93,SW,234,3.0,5.0,70,0.00,,,0.00,0,WeatherCatV1.23B16,2013-11-14 07:21:00,
2013-11-14 01:23:00,41.0,32.0,29.93,SW,234,7.0,7.0,70,0.00,,,0.00,0,WeatherCatV1.23B16,2013-11-14 07:23:00,
2013-11-14 01:24:00,40.9,31.9,29.93,SW,234,2.0,7.0,70,0.00,,,0.00,0,WeatherCatV1.23B16,2013-11-14 07:24:00,
2013-11-14 01:25:00,40.9,31.9,29.93,SW,234,2.0,4.0,70,0.00,,,0.00,0,WeatherCatV1.23B16,2013-11-14 07:25:00,
2013-11-14 01:26:00,40.8,32.1,29.93,SW,234,2.0,7.0,71,0.00,,,0.00,0,WeatherCatV1.23B16,2013-11-14 07:26:00,
2013-11-14 01:28:00,40.7,31.7,29.93,SW,230,4.0,6.0,70,0.00,,,0.00,0,WeatherCatV1.23B16,2013-11-14 07:28:00,
2013-11-14 01:29:00,40.6,32.0,29.93,SW,230,4.0,6.0,71,0.00,,,0.00,0,WeatherCatV1.23B16,2013-11-14 07:29:00,
2013-11-14 01:30:00,40.5,31.9,29.93,SW,217,5.0,7.0,71,0.00,,,0.00,0,WeatherCatV1.23B16,2013-11-14 07:30:00,
2013-11-14 01:31:00,40.5,31.9,29.93,SW,217,5.0,5.0,71,0.00,,,0.00,0,WeatherCatV1.23B16,2013-11-14 07:31:00,
2013-11-14 01:33:00,40.4,31.8,29.93,SW,217,1.0,5.0,71,0.00,,,0.00,0,WeatherCatV1.23B16,2013-11-14 07:33:00,
2013-11-14 01:34:00,40.3,31.7,29.93,SW,217,1.0,4.0,71,0.00,,,0.00,0,WeatherCatV1.23B16,2013-11-14 07:34:00,
2013-11-14 01:36:00,40.2,31.6,29.93,SW,217,3.0,5.0,71,0.00,,,0.00,0,WeatherCatV1.23B16,2013-11-14 07:36:00,
2013-11-14 01:37:00,40.2,31.6,29.93,SW,217,1.0,5.0,71,0.00,,,0.00,0,WeatherCatV1.23B16,2013-11-14 07:37:00,
2013-11-14 01:38:00,40.1,31.5,29.94,SW,217,5.0,6.0,71,0.00,,,0.00,0,WeatherCatV1.23B16,2013-11-14 07:38:00,
2013-11-14 01:39:00,40.1,31.8,29.94,SW,217,4.0,6.0,72,0.00,,,0.00,0,WeatherCatV1.23B16,2013-11-14 07:39:00,
2013-11-14 01:40:00,40.1,31.8,29.93,SW,218,5.0,6.0,72,0.00,,,0.00,0,WeatherCatV1.23B16,2013-11-14 07:40:00,
2013-11-14 01:41:00,40.1,31.8,29.93,SW,218,5.0,7.0,72,0.00,,,0.00,0,WeatherCatV1.23B16,2013-11-14 07:41:00,
2013-11-14 01:42:00,40.0,31.7,29.93,SW,217,4.0,7.0,72,0.00,,,0.00,0,WeatherCatV1.23B16,2013-11-14 07:42:00,
2013-11-14 01:43:00,40.0,31.7,29.93,SW,217,6.0,6.0,72,0.00,,,0.00,0,WeatherCatV1.23B16,2013-11-14 07:43:00,
2013-11-14 01:44:00,40.0,31.7,29.93,SW,219,9.0,9.0,72,0.00,,,0.00,0,WeatherCatV1.23B16,2013-11-14 07:44:00,
2013-11-14 01:45:00,40.0,31.7,29.93,SW,219,4.0,9.0,72,0.00,,,0.00,0,WeatherCatV1.23B16,2013-11-14 07:45:00,
2013-11-14 01:47:00,39.9,31.6,29.92,SW,218,3.0,5.0,72,0.00,,,0.00,0,WeatherCatV1.23B16,2013-11-14 07:47:00,
2013-11-14 01:48:00,39.8,31.5,29.93,SSW,213,4.0,5.0,72,0.00,,,0.00,0,WeatherCatV1.23B16,2013-11-14 07:48:00,
2013-11-14 01:50:00,39.7,31.4,29.93,SSW,213,4.0,5.0,72,0.00,,,0.00,0,WeatherCatV1.23B16,2013-11-14 07:50:00,
2013-11-14 01:52:00,39.7,31.4,29.92,SW,214,3.0,8.0,72,0.00,,,0.00,0,WeatherCatV1.23B16,2013-11-14 07:52:00,
2013-11-14 01:53:00,39.7,31.4,29.93,SW,215,3.0,8.0,72,0.00,,,0.00,0,WeatherCatV1.23B16,2013-11-14 07:53:00,
2013-11-14 01:54:00,39.7,31.4,29.93,SW,215,0.0,8.0,72,0.00,,,0.00,0,WeatherCatV1.23B16,2013-11-14 07:54:00,
2013-11-14 01:55:00,39.7,31.4,29.92,SW,215,0.0,0.0,72,0.00,,,0.00,0,WeatherCatV1.23B16,2013-11-14 07:55:00,
2013-11-14 01:57:00,39.6,31.3,29.92,SW,214,3.0,6.0,72,0.00,,,0.00,0,WeatherCatV1.23B16,2013-11-14 07:57:00,
2013-11-14 01:58:00,39.5,31.2,29.92,SW,215,2.0,5.0,72,0.00,,,0.00,0,WeatherCatV1.23B16,2013-11-14 07:58:00,
2013-11-14 01:59:00,39.5,31.6,29.92,SW,215,3.0,5.0,73,0.00,,,0.00,0,WeatherCatV1.23B16,2013-11-14 07:59:00,
2013-11-14 02:00:00,39.5,31.6,29.92,SW,214,3.0,5.0,73,0.00,,,0.00,0,WeatherCatV1.23B16,2013-11-14 08:00:00,
2013-11-14 02:01:00,39.4,31.5,29.92,SW,215,2.0,4.0,73,0.00,,,0.00,0,WeatherCatV1.23B16,2013-11-14 08:01:00,
2013-11-14 02:02:00,39.4,31.5,29.92,SW,214,2.0,7.0,73,0.00,,,0.00,0,WeatherCatV1.23B16,2013-11-14 08:02:00,
2013-11-14 02:03:00,39.4,31.5,29.93,SW,214,2.0,7.0,73,0.00,,,0.00,0,WeatherCatV1.23B16,2013-11-14 08:03:00,
2013-11-14 02:04:00,39.3,31.4,29.93,SW,214,3.0,7.0,73,0.00,,,0.00,0,WeatherCatV1.23B16,2013-11-14 08:04:00,
2013-11-14 02:06:00,39.3,31.4,29.93,SW,214,4.0,5.0,73,0.00,,,0.00,0,WeatherCatV1.23B16,2013-11-14 08:06:00,
2013-11-14 02:07:00,39.3,31.4,29.92,SW,214,2.0,3.0,73,0.00,,,0.00,0,WeatherCatV1.23B16,2013-11-14 08:07:00,
2013-11-14 02:08:00,39.3,31.4,29.92,SW,214,1.0,3.0,73,0.00,,,0.00,0,WeatherCatV1.23B16,2013-11-14 08:08:00,
2013-11-14 02:09:00,39.3,31.4,29.92,SW,214,0.0,3.0,73,0.00,,,0.00,0,WeatherCatV1.23B16,2013-11-14 08:09:00,
2013-11-14 02:11:00,39.2,31.3,29.92,SW,214,1.0,3.0,73,0.00,,,0.00,0,WeatherCatV1.23B16,2013-11-14 08:11:00,
2013-11-14 02:12:00,39.1,31.2,29.92,SW,214,2.0,3.0,73,0.00,,,0.00,0,WeatherCatV1.23B16,2013-11-14 08:12:00,
2013-11-14 02:14:00,39.0,31.1,29.92,SW,214,4.0,4.0,73,0.00,,,0.00,0,WeatherCatV1.23B16,2013-11-14 08:14:00,
2013-11-14 02:16:00,38.9,31.0,29.92,SW,214,2.0,3.0,73,0.00,,,0.00,0,WeatherCatV1.23B16,2013-11-14 08:16:00,
2013-11-14 02:17:00,38.9,31.3,29.92,SW,214,3.0,4.0,74,0.00,,,0.00,0,WeatherCatV1.23B16,2013-11-14 08:17:00,
2013-11-14 02:18:00,38.9,31.3,29.92,SW,214,3.0,4.0,74,0.00,,,0.00,0,WeatherCatV1.23B16,2013-11-14 08:18:00,
2013-11-14 02:19:00,38.8,31.2,29.92,SW,214,2.0,5.0,74,0.00,,,0.00,0,WeatherCatV1.23B16,2013-11-14 08:19:00,
2013-11-14 02:20:00,38.8,31.2,29.92,SW,214,2.0,5.0,74,0.00,,,0.00,0,WeatherCatV1.23B16,2013-11-14 08:20:00,
2013-11-14 02:21:00,38.8,31.2,29.92,SW,214,1.0,4.0,74,0.00,,,0.00,0,WeatherCatV1.23B16,2013-11-14 08:21:00,
2013-11-14 02:22:00,38.7,31.1,29.92,SW,214,2.0,5.0,74,0.00,,,0.00,0,WeatherCatV1.23B16,2013-11-14 08:22:00,
2013-11-14 02:23:00,38.7,31.1,29.92,SW,214,4.0,5.0,74,0.00,,,0.00,0,WeatherCatV1.23B16,2013-11-14 08:23:00,
2013-11-14 02:24:00,38.7,31.1,29.92,SW,214,1.0,4.0,74,0.00,,,0.00,0,WeatherCatV1.23B16,2013-11-14 08:24:00,
2013-11-14 02:25:00,38.7,31.1,29.92,SW,214,1.0,6.0,74,0.00,,,0.00,0,WeatherCatV1.23B16,2013-11-14 08:25:00,
2013-11-14 02:26:00,38.6,31.0,29.92,SW,214,0.0,3.0,74,0.00,,,0.00,0,WeatherCatV1.23B16,2013-11-14 08:26:00,
2013-11-14 02:27:00,38.6,31.0,29.92,SW,214,0.0,3.0,74,0.00,,,0.00,0,WeatherCatV1.23B16,2013-11-14 08:27:00,
2013-11-14 02:28:00,38.6,31.0,29.92,SW,214,1.0,3.0,74,0.00,,,0.00,0,WeatherCatV1.23B16,2013-11-14 08:28:00,
2013-11-14 02:29:00,38.6,31.0,29.92,SW,214,2.0,3.0,74,0.00,,,0.00,0,WeatherCatV1.23B16,2013-11-14 08:29:00,
2013-11-14 02:30:00,38.5,31.0,29.92,SW,214,5.0,5.0,74,0.00,,,0.00,0,WeatherCatV1.23B16,2013-11-14 08:30:00,
2013-11-14 02:32:00,38.5,31.0,29.92,SW,214,2.0,5.0,74,0.00,,,0.00,0,WeatherCatV1.23B16,2013-11-14 08:32:00,
2013-11-14 02:33:00,38.5,31.0,29.92,SW,214,3.0,5.0,74,0.00,,,0.00,0,WeatherCatV1.23B16,2013-11-14 08:33:00,
2013-11-14 02:34:00,38.5,31.0,29.92,SW,214,1.0,4.0,74,0.00,,,0.00,0,WeatherCatV1.23B16,2013-11-14 08:34:00,
2013-11-14 02:35:00,38.4,30.9,29.92,SW,214,2.0,2.0,74,0.00,,,0.00,0,WeatherCatV1.23B16,2013-11-14 08:35:00,
2013-11-14 02:37:00,38.4,30.9,29.92,SW,214,0.0,3.0,74,0.00,,,0.00,0,WeatherCatV1.23B16,2013-11-14 08:37:00,
2013-11-14 02:38:00,38.3,30.8,29.92,SW,214,0.0,2.0,74,0.00,,,0.00,0,WeatherCatV1.23B16,2013-11-14 08:38:00,
2013-11-14 02:39:00,38.3,30.8,29.92,SW,214,0.0,1.0,74,0.00,,,0.00,0,WeatherCatV1.23B16,2013-11-14 08:39:00,
2013-11-14 02:41:00,38.3,30.8,29.92,SW,214,1.0,2.0,74,0.00,,,0.00,0,WeatherCatV1.23B16,2013-11-14 08:41:00,
2013-11-14 02:42:00,38.3,31.1,29.92,SW,214,0.0,2.0,75,0.00,,,0.00,0,WeatherCatV1.23B16,2013-11-14 08:42:00,
2013-11-14 02:43:00,38.2,31.0,29.92,SW,214,0.0,2.0,75,0.00,,,0.00,0,WeatherCatV1.23B16,2013-11-14 08:43:00,
2013-11-14 02:44:00,38.2,31.0,29.92,SW,214,0.0,2.0,75,0.00,,,0.00,0,WeatherCatV1.23B16,2013-11-14 08:44:00,
2013-11-14 02:46:00,38.2,31.0,29.92,SW,214,0.0,4.0,75,0.00,,,0.00,0,WeatherCatV1.23B16,2013-11-14 08:46:00,
2013-11-14 02:47:00,38.1,30.9,29.92,SW,214,0.0,0.0,75,0.00,,,0.00,0,WeatherCatV1.23B16,2013-11-14 08:47:00,
2013-11-14 02:48:00,38.1,30.9,29.92,SW,214,0.0,0.0,75,0.00,,,0.00,0,WeatherCatV1.23B16,2013-11-14 08:48:00,
2013-11-14 02:49:00,38.0,30.8,29.92,SW,214,0.0,0.0,75,0.00,,,0.00,0,WeatherCatV1.23B16,2013-11-14 08:49:00,
2013-11-14 02:51:00,38.0,30.8,29.92,SW,214,0.0,0.0,75,0.00,,,0.00,0,WeatherCatV1.23B16,2013-11-14 08:51:00,
2013-11-14 02:52:00,37.9,30.7,29.92,SW,214,0.0,0.0,75,0.00,,,0.00,0,WeatherCatV1.23B16,2013-11-14 08:52:00,
2013-11-14 02:53:00,37.8,30.6,29.92,SW,214,0.0,0.0,75,0.00,,,0.00,0,WeatherCatV1.23B16,2013-11-14 08:53:00,
2013-11-14 02:54:00,37.8,30.6,29.92,SW,214,0.0,0.0,75,0.00,,,0.00,0,WeatherCatV1.23B16,2013-11-14 08:54:00,
2013-11-14 02:55:00,37.8,30.6,29.92,SW,214,0.0,0.0,75,0.00,,,0.00,0,WeatherCatV1.23B16,2013-11-14 08:55:00,
2013-11-14 02:56:00,37.7,30.5,29.92,SW,214,0.0,0.0,75,0.00,,,0.00,0,WeatherCatV1.23B16,2013-11-14 08:56:00,
2013-11-14 02:57:00,37.7,30.5,29.92,SW,214,0.0,0.0,75,0.00,,,0.00,0,WeatherCatV1.23B16,2013-11-14 08:57:00,
2013-11-14 02:58:00,37.7,30.5,29.92,SW,214,0.0,0.0,75,0.00,,,0.00,0,WeatherCatV1.23B16,2013-11-14 08:58:00,
2013-11-14 02:59:00,37.6,30.4,29.92,SW,214,0.0,0.0,75,0.00,,,0.00,0,WeatherCatV1.23B16,2013-11-14 08:59:00,
2013-11-14 03:00:00,37.6,30.4,29.92,SW,214,0.0,0.0,75,0.00,,,0.00,0,WeatherCatV1.23B16,2013-11-14 09:00:00,
2013-11-14 03:01:00,37.5,30.3,29.92,SW,214,0.0,0.0,75,0.00,,,0.00,0,WeatherCatV1.23B16,2013-11-14 09:01:00,
2013-11-14 03:02:00,37.5,30.3,29.92,SW,214,0.0,0.0,75,0.00,,,0.00,0,WeatherCatV1.23B16,2013-11-14 09:02:00,
2013-11-14 03:03:00,37.3,30.4,29.92,SW,214,0.0,0.0,76,0.00,,,0.00,0,WeatherCatV1.23B16,2013-11-14 09:03:00,
2013-11-14 03:04:00,37.3,30.4,29.92,SW,214,0.0,0.0,76,0.00,,,0.00,0,WeatherCatV1.23B16,2013-11-14 09:04:00,
2013-11-14 03:06:00,37.2,30.3,29.91,SW,214,0.0,0.0,76,0.00,,,0.00,0,WeatherCatV1.23B16,2013-11-14 09:06:00,
2013-11-14 03:07:00,37.1,30.2,29.91,SW,214,0.0,0.0,76,0.00,,,0.00,0,WeatherCatV1.23B16,2013-11-14 09:07:00,
2013-11-14 03:09:00,37.1,30.2,29.91,SW,214,0.0,0.0,76,0.00,,,0.00,0,WeatherCatV1.23B16,2013-11-14 09:09:00,
2013-11-14 03:11:00,37.0,30.5,29.91,SW,214,0.0,0.0,77,0.00,,,0.00,0,WeatherCatV1.23B16,2013-11-14 09:11:00,
2013-11-14 03:12:00,37.0,30.5,29.91,SW,214,0.0,0.0,77,0.00,,,0.00,0,WeatherCatV1.23B16,2013-11-14 09:12:00,
2013-11-14 03:14:00,36.9,30.4,29.91,SW,214,0.0,0.0,77,0.00,,,0.00,0,WeatherCatV1.23B16,2013-11-14 09:14:00,
2013-11-14 03:15:00,36.9,30.4,29.91,SW,214,0.0,0.0,77,0.00,,,0.00,0,WeatherCatV1.23B16,2013-11-14 09:15:00,
2013-11-14 03:16:00,36.8,30.3,29.91,SW,214,0.0,0.0,77,0.00,,,0.00,0,WeatherCatV1.23B16,2013-11-14 09:16:00,
2013-11-14 03:17:00,36.8,30.3,29.91,SW,214,0.0,0.0,77,0.00,,,0.00,0,WeatherCatV1.23B16,2013-11-14 09:17:00,
2013-11-14 03:19:00,36.6,30.1,29.90,SW,214,0.0,0.0,77,0.00,,,0.00,0,WeatherCatV1.23B16,2013-11-14 09:19:00,
2013-11-14 03:20:00,36.5,30.0,29.90,SW,214,0.0,0.0,77,0.00,,,0.00,0,WeatherCatV1.23B16,2013-11-14 09:20:00,
2013-11-14 03:21:00,36.4,29.9,29.91,SW,214,0.0,0.0,77,0.00,,,0.00,0,WeatherCatV1.23B16,2013-11-14 09:21:00,
2013-11-14 03:22:00,36.3,29.8,29.91,SW,214,0.0,0.0,77,0.00,,,0.00,0,WeatherCatV1.23B16,2013-11-14 09:22:00,
2013-11-14 03:24:00,36.4,30.2,29.91,SW,216,4.0,6.0,78,0.00,,,0.00,0,WeatherCatV1.23B16,2013-11-14 09:24:00,
2013-11-14 03:25:00,36.6,30.4,29.90,SW,215,3.0,6.0,78,0.00,,,0.00,0,WeatherCatV1.23B16,2013-11-14 09:25:00,
2013-11-14 03:26:00,36.9,30.7,29.90,SW,215,4.0,5.0,78,0.00,,,0.00,0,WeatherCatV1.23B16,2013-11-14 09:26:00,
2013-11-14 03:27:00,37.0,30.8,29.90,SW,216,2.0,5.0,78,0.00,,,0.00,0,WeatherCatV1.23B16,2013-11-14 09:27:00,
2013-11-14 03:29:00,37.2,30.7,29.91,SW,216,2.0,4.0,77,0.00,,,0.00,0,WeatherCatV1.23B16,2013-11-14 09:29:00,
2013-11-14 03:30:00,37.2,30.7,29.91,SW,216,2.0,3.0,77,0.00,,,0.00,0,WeatherCatV1.23B16,2013-11-14 09:30:00,
2013-11-14 03:32:00,37.3,30.8,29.91,SW,216,0.0,1.0,77,0.00,,,0.00,0,WeatherCatV1.23B16,2013-11-14 09:32:00,
2013-11-14 03:35:00,37.3,30.8,29.91,SW,216,0.0,2.0,77,0.00,,,0.00,0,WeatherCatV1.23B16,2013-11-14 09:35:00,
2013-11-14 03:37:00,37.3,30.8,29.91,SW,215,0.0,1.0,77,0.00,,,0.00,0,WeatherCatV1.23B16,2013-11-14 09:37:00,
2013-11-14 03:38:00,37.2,30.7,29.91,SW,216,0.0,1.0,77,0.00,,,0.00,0,WeatherCatV1.23B16,2013-11-14 09:38:00,
2013-11-14 03:40:00,37.2,30.7,29.91,SW,216,0.0,2.0,77,0.00,,,0.00,0,WeatherCatV1.23B16,2013-11-14 09:40:00,
2013-11-14 03:43:00,37.1,30.6,29.91,SW,216,0.0,1.0,77,0.00,,,0.00,0,WeatherCatV1.23B16,2013-11-14 09:43:00,
2013-11-14 03:45:00,37.1,30.6,29.91,SW,216,1.0,3.0,77,0.00,,,0.00,0,WeatherCatV1.23B16,2013-11-14 09:45:00,
2013-11-14 03:48:00,37.1,30.6,29.90,SW,216,2.0,4.0,77,0.00,,,0.00,0,WeatherCatV1.23B16,2013-11-14 09:48:00,
2013-11-14 03:49:00,37.2,30.7,29.90,SW,215,1.0,4.0,77,0.00,,,0.00,0,WeatherCatV1.23B16,2013-11-14 09:49:00,
2013-11-14 03:50:00,37.2,30.7,29.90,SW,216,0.0,1.0,77,0.00,,,0.00,0,WeatherCatV1.23B16,2013-11-14 09:50:00,
2013-11-14 03:53:00,37.1,30.6,29.91,SW,216,0.0,0.0,77,0.00,,,0.00,0,WeatherCatV1.23B16,2013-11-14 09:53:00,
2013-11-14 03:54:00,37.1,30.6,29.91,SW,216,0.0,0.0,77,0.00,,,0.00,0,WeatherCatV1.23B16,2013-11-14 09:54:00,
2013-11-14 03:55:00,37.1,30.6,29.91,SW,216,0.0,0.0,77,0.00,,,0.00,0,WeatherCatV1.23B16,2013-11-14 09:55:00,
2013-11-14 03:58:00,37.0,30.5,29.90,SW,216,0.0,0.0,77,0.00,,,0.00,0,WeatherCatV1.23B16,2013-11-14 09:58:00,
2013-11-14 03:59:00,36.9,30.4,29.91,SW,216,0.0,0.0,77,0.00,,,0.00,0,WeatherCatV1.23B16,2013-11-14 09:59:00,
2013-11-14 04:00:00,36.9,30.4,29.90,SW,215,0.0,0.0,77,0.00,,,0.00,0,WeatherCatV1.23B16,2013-11-14 10:00:00,
2013-11-14 04:02:00,36.8,30.3,29.90,SW,215,0.0,0.0,77,0.00,,,0.00,0,WeatherCatV1.23B16,2013-11-14 10:02:00,
2013-11-14 04:03:00,36.8,30.3,29.90,SW,216,0.0,0.0,77,0.00,,,0.00,0,WeatherCatV1.23B16,2013-11-14 10:03:00,
2013-11-14 04:04:00,36.7,30.2,29.90,SW,216,0.0,0.0,77,0.00,,,0.00,0,WeatherCatV1.23B16,2013-11-14 10:04:00,
2013-11-14 04:06:00,36.7,30.5,29.90,SW,216,0.0,0.0,78,0.00,,,0.00,0,WeatherCatV1.23B16,2013-11-14 10:06:00,
2013-11-14 04:07:00,36.7,30.5,29.90,SW,216,0.0,0.0,78,0.00,,,0.00,0,WeatherCatV1.23B16,2013-11-14 10:07:00,
2013-11-14 04:09:00,36.6,30.4,29.90,SW,215,0.0,0.0,78,0.00,,,0.00,0,WeatherCatV1.23B16,2013-11-14 10:09:00,
2013-11-14 04:10:00,36.6,30.4,29.90,SW,215,0.0,0.0,78,0.00,,,0.00,0,WeatherCatV1.23B16,2013-11-14 10:10:00,
2013-11-14 04:11:00,36.6,30.4,29.90,SW,215,0.0,0.0,78,0.00,,,0.00,0,WeatherCatV1.23B16,2013-11-14 10:11:00,
2013-11-14 04:12:00,36.5,30.3,29.90,SW,215,0.0,0.0,78,0.00,,,0.00,0,WeatherCatV1.23B16,2013-11-14 10:12:00,
2013-11-14 04:14:00,36.4,30.2,29.90,SW,216,0.0,0.0,78,0.00,,,0.00,0,WeatherCatV1.23B16,2013-11-14 10:14:00,
2013-11-14 04:15:00,36.4,30.2,29.90,SW,216,0.0,0.0,78,0.00,,,0.00,0,WeatherCatV1.23B16,2013-11-14 10:15:00,
2013-11-14 04:16:00,36.3,30.1,29.90,SW,216,0.0,0.0,78,0.00,,,0.00,0,WeatherCatV1.23B16,2013-11-14 10:16:00,
2013-11-14 04:17:00,36.2,30.0,29.91,SW,216,0.0,0.0,78,0.00,,,0.00,0,WeatherCatV1.23B16,2013-11-14 10:17:00,
2013-11-14 04:19:00,36.0,29.8,29.91,SW,216,0.0,0.0,78,0.00,,,0.00,0,WeatherCatV1.23B16,2013-11-14 10:19:00,
2013-11-14 04:21:00,35.9,29.7,29.91,SW,216,0.0,0.0,78,0.00,,,0.00,0,WeatherCatV1.23B16,2013-11-14 10:21:00,
2013-11-14 04:22:00,35.8,29.6,29.91,SW,215,0.0,0.0,78,0.00,,,0.00,0,WeatherCatV1.23B16,2013-11-14 10:22:00,
2013-11-14 04:25:00,35.5,29.3,29.91,SW,215,0.0,0.0,78,0.00,,,0.00,0,WeatherCatV1.23B16,2013-11-14 10:25:00,
2013-11-14 04:26:00,35.4,29.5,29.91,SW,215,0.0,0.0,79,0.00,,,0.00,0,WeatherCatV1.23B16,2013-11-14 10:26:00,
2013-11-14 04:27:00,35.3,29.5,29.91,SW,216,0.0,0.0,79,0.00,,,0.00,0,WeatherCatV1.23B16,2013-11-14 10:27:00,
2013-11-14 04:28:00,35.3,29.5,29.91,SW,216,0.0,0.0,79,0.00,,,0.00,0,WeatherCatV1.23B16,2013-11-14 10:28:00,
2013-11-14 04:30:00,35.1,29.3,29.91,SW,216,0.0,0.0,79,0.00,,,0.00,0,WeatherCatV1.23B16,2013-11-14 10:30:00,
2013-11-14 04:31:00,35.1,29.3,29.91,SW,216,0.0,0.0,79,0.00,,,0.00,0,WeatherCatV1.23B16,2013-11-14 10:31:00,
2013-11-14 04:32:00,35.0,29.2,29.91,SW,216,0.0,0.0,79,0.00,,,0.00,0,WeatherCatV1.23B16,2013-11-14 10:32:00,
2013-11-14 04:33:00,35.0,29.5,29.91,SW,216,0.0,0.0,80,0.00,,,0.00,0,WeatherCatV1.23B16,2013-11-14 10:33:00,
2013-11-14 04:35:00,34.9,29.4,29.91,SW,216,0.0,0.0,80,0.00,,,0.00,0,WeatherCatV1.23B16,2013-11-14 10:35:00,
2013-11-14 04:36:00,34.8,29.3,29.91,SW,216,0.0,0.0,80,0.00,,,0.00,0,WeatherCatV1.23B16,2013-11-14 10:36:00,
2013-11-14 04:37:00,34.8,29.3,29.91,SW,216,0.0,0.0,80,0.00,,,0.00,0,WeatherCatV1.23B16,2013-11-14 10:37:00,
2013-11-14 04:38:00,34.7,29.2,29.91,SW,216,0.0,0.0,80,0.00,,,0.00,0,WeatherCatV1.23B16,2013-11-14 10:38:00,
2013-11-14 04:40:00,34.8,29.3,29.91,SW,215,0.0,0.0,80,0.00,,,0.00,0,WeatherCatV1.23B16,2013-11-14 10:40:00,
2013-11-14 04:41:00,34.8,29.6,29.91,SW,216,0.0,0.0,81,0.00,,,0.00,0,WeatherCatV1.23B16,2013-11-14 10:41:00,
2013-11-14 04:42:00,34.8,29.6,29.91,SW,216,0.0,0.0,81,0.00,,,0.00,0,WeatherCatV1.23B16,2013-11-14 10:42:00,
2013-11-14 04:43:00,34.8,29.6,29.91,SW,215,0.0,0.0,81,0.00,,,0.00,0,WeatherCatV1.23B16,2013-11-14 10:43:00,
2013-11-14 04:44:00,34.8,29.6,29.91,SW,216,0.0,0.0,81,0.00,,,0.00,0,WeatherCatV1.23B16,2013-11-14 10:44:00,
2013-11-14 04:45:00,34.8,29.6,29.91,SW,215,0.0,0.0,81,0.00,,,0.00,0,WeatherCatV1.23B16,2013-11-14 10:45:00,
2013-11-14 04:46:00,34.8,29.6,29.91,SW,215,0.0,0.0,81,0.00,,,0.00,0,WeatherCatV1.23B16,2013-11-14 10:46:00,
2013-11-14 04:47:00,34.8,29.6,29.91,SW,216,0.0,0.0,81,0.00,,,0.00,0,WeatherCatV1.23B16,2013-11-14 10:47:00,
2013-11-14 04:48:00,34.7,29.5,29.91,SW,216,0.0,0.0,81,0.00,,,0.00,0,WeatherCatV1.23B16,2013-11-14 10:48:00,
2013-11-14 04:49:00,34.7,29.5,29.91,SW,215,0.0,0.0,81,0.00,,,0.00,0,WeatherCatV1.23B16,2013-11-14 10:49:00,
2013-11-14 04:51:00,34.5,29.3,29.91,SW,216,0.0,0.0,81,0.00,,,0.00,0,WeatherCatV1.23B16,2013-11-14 10:51:00,
2013-11-14 04:52:00,34.4,29.2,29.91,SW,216,0.0,0.0,81,0.00,,,0.00,0,WeatherCatV1.23B16,2013-11-14 10:52:00,
2013-11-14 04:53:00,34.4,29.2,29.91,SW,215,0.0,0.0,81,0.00,,,0.00,0,WeatherCatV1.23B16,2013-11-14 10:53:00,
2013-11-14 04:54:00,34.4,29.2,29.91,SW,215,0.0,0.0,81,0.00,,,0.00,0,WeatherCatV1.23B16,2013-11-14 10:54:00,
2013-11-14 04:56:00,34.4,29.2,29.91,SW,216,0.0,0.0,81,0.00,,,0.00,0,WeatherCatV1.23B16,2013-11-14 10:56:00,
2013-11-14 04:57:00,34.4,29.5,29.91,SW,216,0.0,0.0,82,0.00,,,0.00,0,WeatherCatV1.23B16,2013-11-14 10:57:00,
2013-11-14 04:58:00,34.4,29.5,29.91,SW,216,0.0,0.0,82,0.00,,,0.00,0,WeatherCatV1.23B16,2013-11-14 10:58:00,
2013-11-14 05:00:00,34.4,29.5,29.91,SW,216,0.0,0.0,82,0.00,,,0.00,0,WeatherCatV1.23B16,2013-11-14 11:00:00,
2013-11-14 05:01:00,34.4,29.5,29.91,SW,216,0.0,0.0,82,0.00,,,0.00,0,WeatherCatV1.23B16,2013-11-14 11:01:00,
2013-11-14 05:02:00,34.4,29.5,29.91,SW,216,0.0,0.0,82,0.00,,,0.00,0,WeatherCatV1.23B16,2013-11-14 11:02:00,
2013-11-14 05:04:00,34.5,29.6,29.91,SW,216,0.0,0.0,82,0.00,,,0.00,0,WeatherCatV1.23B16,2013-11-14 11:04:00,
2013-11-14 05:05:00,34.6,29.7,29.91,SW,216,0.0,0.0,82,0.00,,,0.00,0,WeatherCatV1.23B16,2013-11-14 11:05:00,
2013-11-14 05:06:00,34.6,29.7,29.91,SW,216,0.0,0.0,82,0.00,,,0.00,0,WeatherCatV1.23B16,2013-11-14 11:06:00,
2013-11-14 05:07:00,34.6,29.7,29.91,SW,215,0.0,0.0,82,0.00,,,0.00,0,WeatherCatV1.23B16,2013-11-14 11:07:00,
2013-11-14 05:08:00,34.6,29.7,29.91,SW,216,0.0,0.0,82,0.00,,,0.00,0,WeatherCatV1.23B16,2013-11-14 11:08:00,
2013-11-14 05:09:00,34.7,29.8,29.91,SW,216,0.0,0.0,82,0.00,,,0.00,0,WeatherCatV1.23B16,2013-11-14 11:09:00,
2013-11-14 05:10:00,34.7,29.8,29.91,SW,215,0.0,0.0,82,0.00,,,0.00,0,WeatherCatV1.23B16,2013-11-14 11:10:00,
2013-11-14 05:12:00,34.7,29.8,29.91,SW,216,0.0,0.0,82,0.00,,,0.00,0,WeatherCatV1.23B16,2013-11-14 11:12:00,
2013-11-14 05:13:00,34.8,29.9,29.91,SW,216,0.0,0.0,82,0.00,,,0.00,0,WeatherCatV1.23B16,2013-11-14 11:13:00,
2013-11-14 05:14:00,34.8,29.9,29.91,SW,215,0.0,0.0,82,0.00,,,0.00,0,WeatherCatV1.23B16,2013-11-14 11:14:00,
2013-11-14 05:15:00,34.8,29.9,29.91,SW,216,0.0,0.0,82,0.00,,,0.00,0,WeatherCatV1.23B16,2013-11-14 11:15:00,
2013-11-14 05:17:00,34.9,30.0,29.91,SW,216,0.0,0.0,82,0.00,,,0.00,0,WeatherCatV1.23B16,2013-11-14 11:17:00,
2013-11-14 05:18:00,35.2,30.6,29.91,SW,216,0.0,1.0,83,0.00,,,0.00,0,WeatherCatV1.23B16,2013-11-14 11:18:00,
2013-11-14 05:19:00,35.3,30.7,29.90,SW,215,0.0,1.0,83,0.00,,,0.00,0,WeatherCatV1.23B16,2013-11-14 11:19:00,
2013-11-14 05:20:00,35.3,30.7,29.90,SW,216,0.0,0.0,83,0.00,,,0.00,0,WeatherCatV1.23B16,2013-11-14 11:20:00,
2013-11-14 05:21:00,35.4,30.8,29.90,SW,216,0.0,0.0,83,0.00,,,0.00,0,WeatherCatV1.23B16,2013-11-14 11:21:00,
2013-11-14 05:22:00,35.4,30.8,29.91,SW,215,0.0,1.0,83,0.00,,,0.00,0,WeatherCatV1.23B16,2013-11-14 11:22:00,
2013-11-14 05:24:00,35.4,30.8,29.91,SW,215,0.0,0.0,83,0.00,,,0.00,0,WeatherCatV1.23B16,2013-11-14 11:24:00,
2013-11-14 05:25:00,35.4,30.8,29.91,SW,216,0.0,0.0,83,0.00,,,0.00,0,WeatherCatV1.23B16,2013-11-14 11:25:00,
2013-11-14 05:26:00,35.3,30.7,29.90,SW,216,0.0,0.0,83,0.00,,,0.00,0,WeatherCatV1.23B16,2013-11-14 11:26:00,
2013-11-14 05:27:00,35.3,30.7,29.90,SW,216,0.0,0.0,83,0.00,,,0.00,0,WeatherCatV1.23B16,2013-11-14 11:27:00,
2013-11-14 05:29:00,35.1,30.5,29.90,SW,216,0.0,0.0,83,0.00,,,0.00,0,WeatherCatV1.23B16,2013-11-14 11:29:00,
2013-11-14 05:30:00,35.0,30.1,29.90,SW,215,0.0,0.0,82,0.00,,,0.00,0,WeatherCatV1.23B16,2013-11-14 11:30:00,
2013-11-14 05:32:00,35.0,30.1,29.90,SW,216,0.0,0.0,82,0.00,,,0.00,0,WeatherCatV1.23B16,2013-11-14 11:32:00,
2013-11-14 05:34:00,35.0,30.4,29.90,SW,215,0.0,0.0,83,0.00,,,0.00,0,WeatherCatV1.23B16,2013-11-14 11:34:00,
2013-11-14 05:35:00,35.0,30.4,29.90,SW,215,0.0,0.0,83,0.00,,,0.00,0,WeatherCatV1.23B16,2013-11-14 11:35:00,
2013-11-14 05:37:00,35.0,30.4,29.90,SW,216,0.0,0.0,83,0.00,,,0.00,0,WeatherCatV1.23B16,2013-11-14 11:37:00,
2013-11-14 05:39:00,34.8,30.2,29.90,SW,216,0.0,0.0,83,0.00,,,0.00,0,WeatherCatV1.23B16,2013-11-14 11:39:00,
2013-11-14 05:40:00,34.8,30.2,29.91,SW,215,0.0,0.0,83,0.00,,,0.00,0,WeatherCatV1.23B16,2013-11-14 11:40:00,
2013-11-14 05:42:00,34.6,30.0,29.91,SW,216,0.0,0.0,83,0.00,,,0.00,0,WeatherCatV1.23B16,2013-11-14 11:42:00,
2013-11-14 05:43:00,34.6,30.0,29.91,SW,216,0.0,0.0,83,0.00,,,0.00,0,WeatherCatV1.23B16,2013-11-14 11:43:00,
2013-11-14 05:45:00,34.5,29.9,29.91,SW,216,0.0,0.0,83,0.00,,,0.00,0,WeatherCatV1.23B16,2013-11-14 11:45:00,
2013-11-14 05:47:00,34.4,29.8,29.91,SW,216,0.0,0.0,83,0.00,,,0.00,0,WeatherCatV1.23B16,2013-11-14 11:47:00,
2013-11-14 05:48:00,34.4,29.8,29.91,SW,215,0.0,0.0,83,0.00,,,0.00,0,WeatherCatV1.23B16,2013-11-14 11:48:00,
2013-11-14 05:50:00,34.4,29.8,29.91,SW,216,0.0,0.0,83,0.00,,,0.00,0,WeatherCatV1.23B16,2013-11-14 11:50:00,
2013-11-14 05:51:00,34.4,29.8,29.91,SW,216,0.0,0.0,83,0.00,,,0.00,0,WeatherCatV1.23B16,2013-11-14 11:51:00,
2013-11-14 05:53:00,34.4,29.8,29.91,SW,215,0.0,0.0,83,0.00,,,0.00,0,WeatherCatV1.23B16,2013-11-14 11:53:00,
2013-11-14 05:54:00,34.4,29.8,29.91,SW,216,0.0,0.0,83,0.00,,,0.00,0,WeatherCatV1.23B16,2013-11-14 11:54:00,
2013-11-14 05:55:00,34.4,29.8,29.91,SW,216,0.0,0.0,83,0.00,,,0.00,0,WeatherCatV1.23B16,2013-11-14 11:55:00,
2013-11-14 05:56:00,34.4,29.8,29.91,SW,216,0.0,0.0,83,0.00,,,0.00,0,WeatherCatV1.23B16,2013-11-14 11:56:00,
2013-11-14 05:57:00,34.4,29.8,29.91,SW,216,0.0,0.0,83,0.00,,,0.00,0,WeatherCatV1.23B16,2013-11-14 11:57:00,
2013-11-14 05:58:00,34.4,29.8,29.91,SW,216,0.0,0.0,83,0.00,,,0.00,0,WeatherCatV1.23B16,2013-11-14 11:58:00,
2013-11-14 05:59:00,34.4,29.8,29.91,SW,216,0.0,0.0,83,0.00,,,0.00,0,WeatherCatV1.23B16,2013-11-14 11:59:00,
2013-11-14 06:00:00,34.3,29.7,29.91,SW,215,0.0,0.0,83,0.00,,,0.00,0,WeatherCatV1.23B16,2013-11-14 12:00:00,
2013-11-14 06:01:00,34.2,29.6,29.91,SW,216,0.0,0.0,83,0.00,,,0.00,0,WeatherCatV1.23B16,2013-11-14 12:01:00,
2013-11-14 06:02:00,34.2,29.6,29.91,SW,216,0.0,0.0,83,0.00,,,0.00,0,WeatherCatV1.23B16,2013-11-14 12:02:00,
2013-11-14 06:03:00,34.1,29.5,29.91,SW,216,0.0,0.0,83,0.00,,,0.00,0,WeatherCatV1.23B16,2013-11-14 12:03:00,
2013-11-14 06:04:00,34.1,29.5,29.91,SW,215,0.0,0.0,83,0.00,,,0.00,0,WeatherCatV1.23B16,2013-11-14 12:04:00,
2013-11-14 06:05:00,34.0,29.4,29.91,SW,215,0.0,0.0,83,0.00,,,0.00,0,WeatherCatV1.23B16,2013-11-14 12:05:00,
2013-11-14 06:06:00,34.0,29.4,29.91,SW,216,0.0,0.0,83,0.00,,,0.00,0,WeatherCatV1.23B16,2013-11-14 12:06:00,
2013-11-14 06:07:00,33.9,29.3,29.91,SW,215,0.0,0.0,83,0.00,,,0.00,0,WeatherCatV1.23B16,2013-11-14 12:07:00,
2013-11-14 06:08:00,33.9,29.3,29.90,SW,216,0.0,0.0,83,0.00,,,0.00,0,WeatherCatV1.23B16,2013-11-14 12:08:00,
2013-11-14 06:09:00,33.9,29.3,29.90,SW,216,0.0,0.0,83,0.00,,,0.00,0,WeatherCatV1.23B16,2013-11-14 12:09:00,
2013-11-14 06:10:00,34.0,29.7,29.90,SW,215,0.0,0.0,84,0.00,,,0.00,0,WeatherCatV1.23B16,2013-11-14 12:10:00,
2013-11-14 06:11:00,34.0,29.7,29.90,SW,216,0.0,0.0,84,0.00,,,0.00,0,WeatherCatV1.23B16,2013-11-14 12:11:00,
2013-11-14 06:12:00,33.9,29.6,29.90,SW,215,0.0,0.0,84,0.00,,,0.00,0,WeatherCatV1.23B16,2013-11-14 12:12:00,
2013-11-14 06:13:00,33.9,29.6,29.90,SW,216,0.0,1.0,84,0.00,,,0.00,0,WeatherCatV1.23B16,2013-11-14 12:13:00,
2013-11-14 06:14:00,33.9,29.6,29.90,SW,216,0.0,1.0,84,0.00,,,0.00,0,WeatherCatV1.23B16,2013-11-14 12:14:00,
2013-11-14 06:15:00,34.1,29.8,29.90,SW,215,3.0,4.0,84,0.00,,,0.00,0,WeatherCatV1.23B16,2013-11-14 12:15:00,
2013-11-14 06:16:00,34.1,29.8,29.90,SW,216,2.0,4.0,84,0.00,,,0.00,0,WeatherCatV1.23B16,2013-11-14 12:16:00,
2013-11-14 06:18:00,34.3,30.0,29.90,SW,216,0.0,2.0,84,0.00,,,0.00,0,WeatherCatV1.23B16,2013-11-14 12:18:00,
2013-11-14 06:19:00,34.4,30.1,29.91,SW,216,0.0,0.0,84,0.00,,,0.00,0,WeatherCatV1.23B16,2013-11-14 12:19:00,
2013-11-14 06:21:00,34.4,30.1,29.91,SW,215,0.0,0.0,84,0.00,,,0.00,0,WeatherCatV1.23B16,2013-11-14 12:21:00,
2013-11-14 06:23:00,34.4,30.1,29.91,SW,215,0.0,0.0,84,0.00,,,0.00,0,WeatherCatV1.23B16,2013-11-14 12:23:00,
2013-11-14 06:24:00,34.4,30.1,29.90,SW,215,0.0,0.0,84,0.00,,,0.00,0,WeatherCatV1.23B16,2013-11-14 12:24:00,
2013-11-14 06:26:00,34.4,30.1,29.91,SW,215,0.0,0.0,84,0.00,,,0.00,0,WeatherCatV1.23B16,2013-11-14 12:26:00,
2013-11-14 06:29:00,34.2,29.9,29.91,SW,216,0.0,0.0,84,0.00,,,0.00,0,WeatherCatV1.23B16,2013-11-14 12:29:00,
2013-11-14 06:30:00,34.1,29.8,29.91,SW,216,0.0,0.0,84,0.00,,,0.00,0,WeatherCatV1.23B16,2013-11-14 12:30:00,
2013-11-14 06:31:00,34.0,29.7,29.91,SW,215,0.0,0.0,84,0.00,,,0.00,0,WeatherCatV1.23B16,2013-11-14 12:31:00,
2013-11-14 06:32:00,34.0,29.4,29.91,SW,216,0.0,0.0,83,0.00,,,0.00,0,WeatherCatV1.23B16,2013-11-14 12:32:00,
2013-11-14 06:34:00,33.9,29.6,29.90,SW,216,0.0,0.0,84,0.00,,,0.00,0,WeatherCatV1.23B16,2013-11-14 12:34:00,
2013-11-14 06:35:00,33.8,29.5,29.90,SW,216,0.0,0.0,84,0.00,,,0.00,0,WeatherCatV1.23B16,2013-11-14 12:35:00,
2013-11-14 06:36:00,33.8,29.5,29.90,SW,216,0.0,0.0,84,0.00,,,0.00,0,WeatherCatV1.23B16,2013-11-14 12:36:00,
2013-11-14 06:37:00,33.8,29.5,29.90,SW,215,0.0,0.0,84,0.00,,,0.00,0,WeatherCatV1.23B16,2013-11-14 12:37:00,
2013-11-14 06:39:00,33.6,29.3,29.91,SW,216,1.0,1.0,84,0.00,,,0.00,0,WeatherCatV1.23B16,2013-11-14 12:39:00,
2013-11-14 06:40:00,33.6,29.3,29.91,SW,216,0.0,1.0,84,0.00,,,0.00,0,WeatherCatV1.23B16,2013-11-14 12:40:00,
2013-11-14 06:41:00,33.5,29.2,29.92,SW,216,0.0,1.0,84,0.00,,,0.00,0,WeatherCatV1.23B16,2013-11-14 12:41:00,
2013-11-14 06:42:00,33.5,29.2,29.92,SW,215,0.0,0.0,84,0.00,,,0.00,0,WeatherCatV1.23B16,2013-11-14 12:42:00,
2013-11-14 06:44:00,33.4,29.1,29.92,SW,216,0.0,0.0,84,0.00,,,0.00,0,WeatherCatV1.23B16,2013-11-14 12:44:00,
2013-11-14 06:45:00,33.4,29.1,29.92,SW,216,0.0,0.0,84,0.00,,,0.00,0,WeatherCatV1.23B16,2013-11-14 12:45:00,
2013-11-14 06:46:00,33.3,29.0,29.92,SW,216,0.0,0.0,84,0.00,,,0.00,0,WeatherCatV1.23B16,2013-11-14 12:46:00,
2013-11-14 06:47:00,33.3,29.0,29.92,SW,216,0.0,0.0,84,0.00,,,0.00,0,WeatherCatV1.23B16,2013-11-14 12:47:00,
2013-11-14 06:48:00,33.3,29.0,29.92,SW,216,0.0,0.0,84,0.00,,,0.00,0,WeatherCatV1.23B16,2013-11-14 12:48:00,
2013-11-14 06:50:00,33.2,28.9,29.92,SW,216,0.0,0.0,84,0.00,,,0.00,0,WeatherCatV1.23B16,2013-11-14 12:50:00,
2013-11-14 06:51:00,33.2,28.9,29.93,SW,216,0.0,0.0,84,0.00,,,0.00,0,WeatherCatV1.23B16,2013-11-14 12:51:00,
2013-11-14 06:52:00,33.1,28.8,29.93,SW,215,0.0,0.0,84,0.00,,,0.00,0,WeatherCatV1.23B16,2013-11-14 12:52:00,
2013-11-14 06:53:00,33.1,28.8,29.93,SW,215,0.0,0.0,84,0.00,,,0.00,0,WeatherCatV1.23B16,2013-11-14 12:53:00,
2013-11-14 06:55:00,33.1,28.8,29.93,SW,215,0.0,0.0,84,0.00,,,0.00,0,WeatherCatV1.23B16,2013-11-14 12:55:00,
2013-11-14 06:57:00,33.0,29.0,29.93,SW,215,0.0,0.0,85,0.00,,,0.00,0,WeatherCatV1.23B16,2013-11-14 12:57:00,
2013-11-14 06:58:00,33.0,29.0,29.93,SW,215,0.0,0.0,85,0.00,,,0.00,0,WeatherCatV1.23B16,2013-11-14 12:58:00,
2013-11-14 07:00:00,33.0,29.0,29.93,SW,216,0.0,0.0,85,0.00,,,0.00,0,WeatherCatV1.23B16,2013-11-14 13:00:00,
2013-11-14 07:02:00,33.0,29.0,29.93,SW,216,0.0,0.0,85,0.00,,,0.00,0,WeatherCatV1.23B16,2013-11-14 13:02:00,
2013-11-14 07:03:00,33.0,29.0,29.93,SW,216,0.0,0.0,85,0.00,,,0.00,0,WeatherCatV1.23B16,2013-11-14 13:03:00,
2013-11-14 07:04:00,33.0,29.0,29.93,SW,215,0.0,0.0,85,0.00,,,0.00,0,WeatherCatV1.23B16,2013-11-14 13:04:00,
2013-11-14 07:05:00,33.0,29.0,29.93,SW,215,0.0,0.0,85,0.00,,,0.00,0,WeatherCatV1.23B16,2013-11-14 13:05:00,
2013-11-14 07:06:00,33.0,29.0,29.93,SW,216,0.0,0.0,85,0.00,,,0.00,0,WeatherCatV1.23B16,2013-11-14 13:06:00,
2013-11-14 07:08:00,33.0,29.0,29.93,SW,215,0.0,0.0,85,0.00,,,0.00,0,WeatherCatV1.23B16,2013-11-14 13:08:00,
2013-11-14 07:09:00,33.0,29.0,29.93,SW,216,0.0,0.0,85,0.00,,,0.00,5,WeatherCatV1.23B16,2013-11-14 13:09:00,
2013-11-14 07:10:00,32.9,28.9,29.93,SW,216,0.0,0.0,85,0.00,,,0.00,5,WeatherCatV1.23B16,2013-11-14 13:10:00,
2013-11-14 07:11:00,32.9,28.9,29.93,SW,216,0.0,0.0,85,0.00,,,0.00,5,WeatherCatV1.23B16,2013-11-14 13:11:00,
2013-11-14 07:13:00,32.9,28.9,29.93,SW,216,0.0,0.0,85,0.00,,,0.00,0,WeatherCatV1.23B16,2013-11-14 13:13:00,
2013-11-14 07:14:00,32.9,28.9,29.93,SW,215,0.0,0.0,85,0.00,,,0.00,0,WeatherCatV1.23B16,2013-11-14 13:14:00,
2013-11-14 07:15:00,32.9,28.9,29.93,SW,216,0.0,0.0,85,0.00,,,0.00,0,WeatherCatV1.23B16,2013-11-14 13:15:00,
2013-11-14 07:17:00,32.8,28.8,29.93,SW,216,0.0,0.0,85,0.00,,,0.00,0,WeatherCatV1.23B16,2013-11-14 13:17:00,
2013-11-14 07:18:00,32.8,28.8,29.92,SW,216,0.0,0.0,85,0.00,,,0.00,0,WeatherCatV1.23B16,2013-11-14 13:18:00,
2013-11-14 07:19:00,32.8,28.8,29.92,SW,216,0.0,0.0,85,0.00,,,0.00,0,WeatherCatV1.23B16,2013-11-14 13:19:00,
2013-11-14 07:20:00,32.8,28.8,29.92,SW,215,0.0,0.0,85,0.00,,,0.00,0,WeatherCatV1.23B16,2013-11-14 13:20:00,
2013-11-14 07:22:00,33.0,29.3,29.92,SW,216,0.0,0.0,86,0.00,,,0.00,0,WeatherCatV1.23B16,2013-11-14 13:22:00,
2013-11-14 07:23:00,33.0,29.3,29.93,SW,216,0.0,0.0,86,0.00,,,0.00,0,WeatherCatV1.23B16,2013-11-14 13:23:00,
2013-11-14 07:24:00,33.1,29.4,29.93,SW,216,0.0,0.0,86,0.00,,,0.00,5,WeatherCatV1.23B16,2013-11-14 13:24:00,
2013-11-14 07:25:00,33.1,29.4,29.93,SW,215,0.0,0.0,86,0.00,,,0.00,5,WeatherCatV1.23B16,2013-11-14 13:25:00,
2013-11-14 07:27:00,33.0,29.3,29.93,SW,216,0.0,0.0,86,0.00,,,0.00,5,WeatherCatV1.23B16,2013-11-14 13:27:00,
2013-11-14 07:28:00,33.0,29.3,29.93,SW,216,0.0,0.0,86,0.00,,,0.00,7,WeatherCatV1.23B16,2013-11-14 13:28:00,
2013-11-14 07:30:00,33.0,29.3,29.93,SW,216,0.0,0.0,86,0.00,,,0.00,9,WeatherCatV1.23B16,2013-11-14 13:30:00,
2013-11-14 07:33:00,32.9,29.2,29.93,SW,216,0.0,0.0,86,0.00,,,0.00,11,WeatherCatV1.23B16,2013-11-14 13:33:00,
2013-11-14 07:34:00,32.9,29.2,29.93,SW,216,0.0,0.0,86,0.00,,,0.00,12,WeatherCatV1.23B16,2013-11-14 13:34:00,
2013-11-14 07:35:00,32.9,29.2,29.92,SW,216,0.0,0.0,86,0.00,,,0.00,14,WeatherCatV1.23B16,2013-11-14 13:35:00,
2013-11-14 07:37:00,33.0,29.3,29.92,SW,216,0.0,0.0,86,0.00,,,0.00,16,WeatherCatV1.23B16,2013-11-14 13:37:00,
2013-11-14 07:38:00,33.0,29.3,29.93,SW,216,0.0,0.0,86,0.00,,,0.00,16,WeatherCatV1.23B16,2013-11-14 13:38:00,
2013-11-14 07:39:00,33.0,29.3,29.93,SW,215,0.0,0.0,86,0.00,,,0.00,18,WeatherCatV1.23B16,2013-11-14 13:39:00,
2013-11-14 07:40:00,33.1,29.4,29.93,SW,215,0.0,3.0,86,0.00,,,0.00,21,WeatherCatV1.23B16,2013-11-14 13:40:00,
2013-11-14 07:41:00,33.1,31.0,29.93,SW,215,0.0,3.0,92,0.00,,,0.00,23,WeatherCatV1.23B16,2013-11-14 13:41:00,
2013-11-14 07:43:00,33.2,29.5,29.93,SW,216,2.0,3.0,86,0.00,,,0.00,25,WeatherCatV1.23B16,2013-11-14 13:43:00,
2013-11-14 07:44:00,33.4,29.7,29.93,SW,215,1.0,3.0,86,0.00,,,0.00,26,WeatherCatV1.23B16,2013-11-14 13:44:00,
2013-11-14 07:46:00,33.5,30.0,29.93,SW,216,2.0,3.0,87,0.00,,,0.00,28,WeatherCatV1.23B16,2013-11-14 13:46:00,
2013-11-14 07:48:00,34.0,30.5,29.93,SW,216,0.0,4.0,87,0.00,,,0.00,32,WeatherCatV1.23B16,2013-11-14 13:48:00,
2013-11-14 07:49:00,34.2,30.7,29.92,SW,215,0.0,3.0,87,0.00,,,0.00,32,WeatherCatV1.23B16,2013-11-14 13:49:00,
2013-11-14 07:51:00,34.4,31.2,29.93,SW,216,2.0,4.0,88,0.00,,,0.00,35,WeatherCatV1.23B16,2013-11-14 13:51:00,
2013-11-14 07:54:00,34.7,31.5,29.93,SW,217,3.0,4.0,88,0.00,,,0.00,39,WeatherCatV1.23B16,2013-11-14 13:54:00,
2013-11-14 07:55:00,34.9,31.7,29.93,SW,217,0.0,4.0,88,0.00,,,0.00,40,WeatherCatV1.23B16,2013-11-14 13:55:00,
2013-11-14 07:56:00,35.1,31.9,29.93,SW,217,2.0,4.0,88,0.00,,,0.00,42,WeatherCatV1.23B16,2013-11-14 13:56:00,
2013-11-14 07:57:00,35.2,32.0,29.93,SW,217,3.0,4.0,88,0.00,,,0.00,42,WeatherCatV1.23B16,2013-11-14 13:57:00,
2013-11-14 07:59:00,35.4,32.2,29.93,SW,217,0.0,3.0,88,0.00,,,0.00,49,WeatherCatV1.23B16,2013-11-14 13:59:00,
2013-11-14 08:00:00,35.5,32.3,29.93,SW,217,0.0,4.0,88,0.00,,,0.00,51,WeatherCatV1.23B16,2013-11-14 14:00:00,
2013-11-14 08:01:00,35.7,32.5,29.93,SW,220,0.0,5.0,88,0.00,,,0.00,54,WeatherCatV1.23B16,2013-11-14 14:01:00,
2013-11-14 08:02:00,35.7,32.5,29.93,SW,220,0.0,5.0,88,0.00,,,0.00,54,WeatherCatV1.23B16,2013-11-14 14:02:00,
2013-11-14 08:04:00,36.0,32.8,29.93,SW,220,0.0,2.0,88,0.00,,,0.00,58,WeatherCatV1.23B16,2013-11-14 14:04:00,
2013-11-14 08:05:00,36.0,32.5,29.93,SW,219,3.0,4.0,87,0.00,,,0.00,60,WeatherCatV1.23B16,2013-11-14 14:05:00,
2013-11-14 08:06:00,36.2,32.7,29.93,SW,225,2.0,5.0,87,0.00,,,0.00,65,WeatherCatV1.23B16,2013-11-14 14:06:00,
2013-11-14 08:07:00,36.2,32.7,29.93,SW,226,4.0,5.0,87,0.00,,,0.00,65,WeatherCatV1.23B16,2013-11-14 14:07:00,
2013-11-14 08:09:00,36.4,32.9,29.94,NNW,333,0.0,7.0,87,0.00,,,0.00,70,WeatherCatV1.23B16,2013-11-14 14:09:00,
2013-11-14 08:10:00,36.5,33.0,29.94,NNW,338,3.0,7.0,87,0.00,,,0.00,70,WeatherCatV1.23B16,2013-11-14 14:10:00,
2013-11-14 08:12:00,36.8,33.3,29.94,North,11,2.0,7.0,87,0.00,,,0.00,74,WeatherCatV1.23B16,2013-11-14 14:12:00,
2013-11-14 08:14:00,37.1,33.6,29.94,North,5,4.0,6.0,87,0.00,,,0.00,76,WeatherCatV1.23B16,2013-11-14 14:14:00,
2013-11-14 08:15:00,37.1,33.6,29.94,North,5,3.0,5.0,87,0.00,,,0.00,77,WeatherCatV1.23B16,2013-11-14 14:15:00,
2013-11-14 08:16:00,37.2,33.4,29.94,North,0,4.0,5.0,86,0.00,,,0.00,79,WeatherCatV1.23B16,2013-11-14 14:16:00,
2013-11-14 08:17:00,37.3,33.5,29.94,North,355,5.0,6.0,86,0.00,,,0.00,81,WeatherCatV1.23B16,2013-11-14 14:17:00,
2013-11-14 08:20:00,37.5,33.7,29.95,NNW,338,4.0,7.0,86,0.00,,,0.00,86,WeatherCatV1.23B16,2013-11-14 14:20:00,
2013-11-14 08:21:00,37.5,33.7,29.95,NNW,338,6.0,9.0,86,0.00,,,0.00,88,WeatherCatV1.23B16,2013-11-14 14:21:00,
2013-11-14 08:22:00,37.5,33.4,29.96,NNW,336,5.0,9.0,85,0.00,,,0.00,90,WeatherCatV1.23B16,2013-11-14 14:22:00,
2013-11-14 08:25:00,37.6,33.5,29.95,NW,319,2.0,4.0,85,0.00,,,0.00,100,WeatherCatV1.23B16,2013-11-14 14:25:00,
2013-11-14 08:26:00,37.6,33.5,29.95,NNW,348,4.0,6.0,85,0.00,,,0.00,104,WeatherCatV1.23B16,2013-11-14 14:26:00,
2013-11-14 08:27:00,37.7,33.6,29.95,NNW,348,1.0,6.0,85,0.00,,,0.00,107,WeatherCatV1.23B16,2013-11-14 14:27:00,
2013-11-14 08:31:00,38.0,33.6,29.95,NW,325,5.0,6.0,84,0.00,,,0.00,120,WeatherCatV1.23B16,2013-11-14 14:31:00,
2013-11-14 08:32:00,38.1,33.7,29.95,NNW,334,1.0,5.0,84,0.00,,,0.00,123,WeatherCatV1.23B16,2013-11-14 14:32:00,
2013-11-14 08:36:00,38.6,34.2,29.96,North,355,3.0,10.0,84,0.00,,,0.00,149,WeatherCatV1.23B16,2013-11-14 14:36:00,
2013-11-14 08:37:00,38.7,34.0,29.95,NNW,346,1.0,7.0,83,0.00,,,0.00,153,WeatherCatV1.23B16,2013-11-14 14:37:00,
2013-11-14 08:41:00,39.3,34.6,29.96,North,351,1.0,6.0,83,0.00,,,0.00,151,WeatherCatV1.23B16,2013-11-14 14:41:00,
2013-11-14 08:42:00,39.5,34.8,29.96,North,355,3.0,7.0,83,0.00,,,0.00,155,WeatherCatV1.23B16,2013-11-14 14:42:00,
2013-11-14 08:46:00,40.2,35.2,29.96,NNE,25,2.0,10.0,82,0.00,,,0.00,153,WeatherCatV1.23B16,2013-11-14 14:46:00,
2013-11-14 08:47:00,40.4,35.3,29.96,NNE,24,3.0,10.0,82,0.00,,,0.00,142,WeatherCatV1.23B16,2013-11-14 14:47:00,
2013-11-14 08:51:00,41.0,35.6,29.95,NNE,24,0.0,5.0,81,0.00,,,0.00,139,WeatherCatV1.23B16,2013-11-14 14:51:00,
2013-11-14 08:52:00,41.1,35.4,29.95,NNE,24,4.0,5.0,80,0.00,,,0.00,149,WeatherCatV1.23B16,2013-11-14 14:52:00,
2013-11-14 08:53:00,41.2,35.5,29.95,NNE,21,3.0,6.0,80,0.00,,,0.00,155,WeatherCatV1.23B16,2013-11-14 14:53:00,
2013-11-14 08:56:00,41.7,36.0,29.95,NE,43,2.0,10.0,80,0.00,,,0.00,132,WeatherCatV1.23B16,2013-11-14 14:56:00,
2013-11-14 08:57:00,41.8,36.1,29.95,NE,43,3.0,10.0,80,0.00,,,0.00,130,WeatherCatV1.23B16,2013-11-14 14:57:00,
2013-11-14 08:58:00,41.9,35.9,29.95,NE,40,4.0,6.0,79,0.00,,,0.00,128,WeatherCatV1.23B16,2013-11-14 14:58:00,
2013-11-14 09:01:00,42.2,36.2,29.95,NNE,28,4.0,5.0,79,0.00,,,0.00,128,WeatherCatV1.23B16,2013-11-14 15:01:00,
2013-11-14 09:02:00,42.3,35.9,29.95,NNE,28,6.0,6.0,78,0.00,,,0.00,123,WeatherCatV1.23B16,2013-11-14 15:02:00,
2013-11-14 09:03:00,42.3,35.9,29.95,NNE,28,2.0,7.0,78,0.00,,,0.00,123,WeatherCatV1.23B16,2013-11-14 15:03:00,
2013-11-14 09:04:00,42.4,36.0,29.95,NNE,28,1.0,7.0,78,0.00,,,0.00,121,WeatherCatV1.23B16,2013-11-14 15:04:00,
2013-11-14 09:06:00,42.6,36.2,29.96,NNE,28,3.0,6.0,78,0.00,,,0.00,118,WeatherCatV1.23B16,2013-11-14 15:06:00,
2013-11-14 09:07:00,42.7,36.3,29.96,NNE,26,4.0,6.0,78,0.00,,,0.00,120,WeatherCatV1.23B16,2013-11-14 15:07:00,
2013-11-14 09:08:00,42.7,36.3,29.95,NNE,26,2.0,5.0,78,0.00,,,0.00,121,WeatherCatV1.23B16,2013-11-14 15:08:00,
2013-11-14 09:09:00,42.8,36.1,29.95,NNE,20,5.0,7.0,77,0.00,,,0.00,123,WeatherCatV1.23B16,2013-11-14 15:09:00,
2013-11-14 09:11:00,43.1,36.4,29.95,NNE,15,3.0,5.0,77,0.00,,,0.00,121,WeatherCatV1.23B16,2013-11-14 15:11:00,
2013-11-14 09:13:00,43.2,36.5,29.95,NNE,15,0.0,4.0,77,0.00,,,0.00,121,WeatherCatV1.23B16,2013-11-14 15:13:00,
2013-11-14 09:14:00,43.3,36.6,29.95,NNE,15,3.0,4.0,77,0.00,,,0.00,123,WeatherCatV1.23B16,2013-11-14 15:14:00,
2013-11-14 09:17:00,43.5,36.8,29.96,NNE,15,3.0,6.0,77,0.00,,,0.00,125,WeatherCatV1.23B16,2013-11-14 15:17:00,
2013-11-14 09:18:00,43.6,36.9,29.96,NNE,15,0.0,5.0,77,0.00,,,0.00,132,WeatherCatV1.23B16,2013-11-14 15:18:00,
2013-11-14 09:19:00,43.7,36.6,29.96,NNE,15,2.0,3.0,76,0.00,,,0.00,137,WeatherCatV1.23B16,2013-11-14 15:19:00,
2013-11-14 09:20:00,43.8,36.7,29.96,North,5,9.0,10.0,76,0.00,,,0.00,144,WeatherCatV1.23B16,2013-11-14 15:20:00,
2013-11-14 09:22:00,44.1,37.0,29.96,NNE,30,4.0,6.0,76,0.00,,,0.00,153,WeatherCatV1.23B16,2013-11-14 15:22:00,
2013-11-14 09:23:00,44.2,36.8,29.96,NNE,28,2.0,4.0,75,0.00,,,0.00,162,WeatherCatV1.23B16,2013-11-14 15:23:00,
2013-11-14 09:24:00,44.3,36.9,29.96,NNE,28,2.0,4.0,75,0.00,,,0.00,162,WeatherCatV1.23B16,2013-11-14 15:24:00,
2013-11-14 09:25:00,44.5,37.1,29.96,NNE,19,4.0,6.0,75,0.00,,,0.00,165,WeatherCatV1.23B16,2013-11-14 15:25:00,
2013-11-14 09:27:00,44.6,37.2,29.96,NNE,30,3.0,14.0,75,0.00,,,0.00,181,WeatherCatV1.23B16,2013-11-14 15:27:00,
2013-11-14 09:28:00,44.6,36.8,29.96,NE,37,9.0,14.0,74,0.00,,,0.00,188,WeatherCatV1.23B16,2013-11-14 15:28:00,
2013-11-14 09:29:00,44.6,36.8,29.96,NNE,22,6.0,11.0,74,0.00,,,0.00,188,WeatherCatV1.23B16,2013-11-14 15:29:00,
2013-11-14 09:31:00,44.7,36.9,29.96,North,355,10.0,11.0,74,0.00,,,0.00,220,WeatherCatV1.23B16,2013-11-14 15:31:00,
2013-11-14 09:32:00,44.8,37.0,29.96,NNE,24,12.0,13.0,74,0.00,,,0.00,214,WeatherCatV1.23B16,2013-11-14 15:32:00,
2013-11-14 09:33:00,44.8,37.0,29.96,North,5,5.0,13.0,74,0.00,,,0.00,225,WeatherCatV1.23B16,2013-11-14 15:33:00,
2013-11-14 09:34:00,44.9,37.1,29.96,NNE,28,5.0,13.0,74,0.00,,,0.00,225,WeatherCatV1.23B16,2013-11-14 15:34:00,
2013-11-14 09:36:00,45.0,37.2,29.96,North,350,5.0,8.0,74,0.00,,,0.00,237,WeatherCatV1.23B16,2013-11-14 15:36:00,
2013-11-14 09:37:00,45.0,37.2,29.96,North,349,2.0,8.0,74,0.00,,,0.00,237,WeatherCatV1.23B16,2013-11-14 15:37:00,
2013-11-14 09:38:00,45.1,37.0,29.96,North,355,13.0,13.0,73,0.00,,,0.00,283,WeatherCatV1.23B16,2013-11-14 15:38:00,
2013-11-14 09:39:00,45.2,37.1,29.96,North,0,5.0,13.0,73,0.00,,,0.00,302,WeatherCatV1.23B16,2013-11-14 15:39:00,
2013-11-14 09:41:00,45.5,37.4,29.96,North,9,6.0,7.0,73,0.00,,,0.00,367,WeatherCatV1.23B16,2013-11-14 15:41:00,
2013-11-14 09:42:00,45.6,37.5,29.96,North,9,2.0,7.0,73,0.00,,,0.00,383,WeatherCatV1.23B16,2013-11-14 15:42:00,
2013-11-14 09:43:00,45.8,37.6,29.96,North,9,0.0,2.0,73,0.00,,,0.00,385,WeatherCatV1.23B16,2013-11-14 15:43:00,
2013-11-14 09:44:00,46.0,37.8,29.96,North,0,7.0,7.0,73,0.00,,,0.00,383,WeatherCatV1.23B16,2013-11-14 15:44:00,
2013-11-14 09:45:00,46.1,37.9,29.96,North,355,5.0,7.0,73,0.00,,,0.00,383,WeatherCatV1.23B16,2013-11-14 15:45:00,
2013-11-14 09:46:00,46.5,38.0,29.96,NNE,26,6.0,9.0,72,0.00,,,0.00,454,WeatherCatV1.23B16,2013-11-14 15:46:00,
2013-11-14 09:47:00,46.6,38.1,29.96,NNE,22,1.0,9.0,72,0.00,,,0.00,454,WeatherCatV1.23B16,2013-11-14 15:47:00,
2013-11-14 09:49:00,46.9,38.3,29.96,NE,38,5.0,9.0,72,0.00,,,0.00,504,WeatherCatV1.23B16,2013-11-14 15:49:00,
2013-11-14 09:50:00,47.1,38.2,29.96,NE,46,13.0,13.0,71,0.00,,,0.00,415,WeatherCatV1.23B16,2013-11-14 15:50:00,
2013-11-14 09:51:00,47.4,38.1,29.96,NNE,18,6.0,14.0,70,0.00,,,0.00,374,WeatherCatV1.23B16,2013-11-14 15:51:00,
2013-11-14 09:52:00,47.4,38.1,29.96,North,5,6.0,10.0,70,0.00,,,0.00,287,WeatherCatV1.23B16,2013-11-14 15:52:00,
2013-11-14 09:54:00,47.4,37.8,29.96,NNE,13,5.0,13.0,69,0.00,,,0.00,325,WeatherCatV1.23B16,2013-11-14 15:54:00,
2013-11-14 09:55:00,47.4,37.8,29.96,North,0,3.0,13.0,69,0.00,,,0.00,325,WeatherCatV1.23B16,2013-11-14 15:55:00,
2013-11-14 09:57:00,47.4,37.8,29.96,North,351,4.0,7.0,69,0.00,,,0.00,258,WeatherCatV1.23B16,2013-11-14 15:57:00,
2013-11-14 09:59:00,47.4,37.8,29.96,NNE,15,5.0,12.0,69,0.00,,,0.00,255,WeatherCatV1.23B16,2013-11-14 15:59:00,
2013-11-14 10:00:00,47.4,37.8,29.96,NNW,334,5.0,12.0,69,0.00,,,0.00,250,WeatherCatV1.23B16,2013-11-14 16:00:00,
2013-11-14 10:02:00,47.4,38.1,29.96,NNW,330,2.0,6.0,70,0.00,,,0.00,251,WeatherCatV1.23B16,2013-11-14 16:02:00,
2013-11-14 10:03:00,47.5,38.2,29.96,NNW,330,2.0,6.0,70,0.00,,,0.00,258,WeatherCatV1.23B16,2013-11-14 16:03:00,
2013-11-14 10:04:00,47.6,38.3,29.96,NNE,19,10.0,18.0,70,0.00,,,0.00,279,WeatherCatV1.23B16,2013-11-14 16:04:00,
2013-11-14 10:05:00,47.6,38.3,29.96,NE,41,12.0,18.0,70,0.00,,,0.00,279,WeatherCatV1.23B16,2013-11-14 16:05:00,
2013-11-14 10:06:00,47.6,38.3,29.96,NNE,22,14.0,18.0,70,0.00,,,0.00,290,WeatherCatV1.23B16,2013-11-14 16:06:00,
2013-11-14 10:07:00,47.7,38.4,29.96,NNE,30,9.0,9.0,70,0.00,,,0.00,295,WeatherCatV1.23B16,2013-11-14 16:07:00,
2013-11-14 10:08:00,47.7,38.4,29.96,NNW,329,3.0,10.0,70,0.00,,,0.00,285,WeatherCatV1.23B16,2013-11-14 16:08:00,
2013-11-14 10:09:00,47.8,38.5,29.96,North,355,4.0,8.0,70,0.00,,,0.00,294,WeatherCatV1.23B16,2013-11-14 16:09:00,
2013-11-14 10:10:00,47.9,38.6,29.96,North,355,2.0,8.0,70,0.00,,,0.00,283,WeatherCatV1.23B16,2013-11-14 16:10:00,
2013-11-14 10:11:00,48.0,38.7,29.96,NW,321,3.0,7.0,70,0.00,,,0.00,276,WeatherCatV1.23B16,2013-11-14 16:11:00,
2013-11-14 10:12:00,48.1,38.8,29.96,North,5,11.0,11.0,70,0.00,,,0.00,272,WeatherCatV1.23B16,2013-11-14 16:12:00,
2013-11-14 10:13:00,48.1,38.8,29.96,North,5,7.0,13.0,70,0.00,,,0.00,287,WeatherCatV1.23B16,2013-11-14 16:13:00,
2013-11-14 10:15:00,48.2,38.9,29.96,NNW,340,10.0,11.0,70,0.00,,,0.00,294,WeatherCatV1.23B16,2013-11-14 16:15:00,
2013-11-14 10:16:00,48.2,38.9,29.96,North,355,3.0,13.0,70,0.00,,,0.00,306,WeatherCatV1.23B16,2013-11-14 16:16:00,
2013-11-14 10:18:00,48.3,39.0,29.96,North,0,4.0,10.0,70,0.00,,,0.00,323,WeatherCatV1.23B16,2013-11-14 16:18:00,
2013-11-14 10:20:00,48.5,39.2,29.96,NNE,28,4.0,15.0,70,0.00,,,0.00,341,WeatherCatV1.23B16,2013-11-14 16:20:00,
2013-11-14 10:21:00,48.6,39.3,29.96,North,10,7.0,15.0,70,0.00,,,0.00,338,WeatherCatV1.23B16,2013-11-14 16:21:00,
2013-11-14 10:23:00,48.8,39.5,29.96,North,5,4.0,10.0,70,0.00,,,0.00,339,WeatherCatV1.23B16,2013-11-14 16:23:00,
2013-11-14 10:25:00,49.2,39.8,29.96,NNE,13,11.0,17.0,70,0.00,,,0.00,359,WeatherCatV1.23B16,2013-11-14 16:25:00,
2013-11-14 10:27:00,49.5,39.8,29.95,NNE,33,9.0,17.0,69,0.00,,,0.00,362,WeatherCatV1.23B16,2013-11-14 16:27:00,
2013-11-14 10:28:00,49.8,40.0,29.96,NE,34,2.0,11.0,69,0.00,,,0.00,348,WeatherCatV1.23B16,2013-11-14 16:28:00,
2013-11-14 10:30:00,50.2,40.0,29.95,North,5,7.0,15.0,68,0.00,,,0.00,302,WeatherCatV1.23B16,2013-11-14 16:30:00,
2013-11-14 10:31:00,50.3,40.2,29.96,NNE,21,13.0,15.0,68,0.00,,,0.00,304,WeatherCatV1.23B16,2013-11-14 16:31:00,
2013-11-14 10:32:00,50.4,40.2,29.95,North,5,8.0,14.0,68,0.00,,,0.00,320,WeatherCatV1.23B16,2013-11-14 16:32:00,
2013-11-14 10:33:00,50.5,40.3,29.96,NNE,24,3.0,14.0,68,0.00,,,0.00,322,WeatherCatV1.23B16,2013-11-14 16:33:00,
2013-11-14 10:35:00,50.8,40.2,29.96,NNE,25,1.0,16.0,67,0.00,,,0.00,364,WeatherCatV1.23B16,2013-11-14 16:35:00,
2013-11-14 10:37:00,51.0,40.4,29.96,NW,319,15.0,15.0,67,0.00,,,0.00,381,WeatherCatV1.23B16,2013-11-14 16:37:00,
2013-11-14 10:38:00,51.2,40.6,29.96,NNE,33,2.0,17.0,67,0.00,,,0.00,457,WeatherCatV1.23B16,2013-11-14 16:38:00,
2013-11-14 10:40:00,51.6,41.0,29.96,North,0,7.0,17.0,67,0.00,,,0.00,394,WeatherCatV1.23B16,2013-11-14 16:40:00,
2013-11-14 10:42:00,51.8,40.8,29.95,NNW,348,7.0,17.0,66,0.00,,,0.00,348,WeatherCatV1.23B16,2013-11-14 16:42:00,
2013-11-14 10:43:00,51.8,40.8,29.96,North,10,6.0,19.0,66,0.00,,,0.00,251,WeatherCatV1.23B16,2013-11-14 16:43:00,
2013-11-14 10:44:00,51.7,40.3,29.96,NNE,30,16.0,19.0,65,0.00,,,0.00,260,WeatherCatV1.23B16,2013-11-14 16:44:00,
2013-11-14 10:45:00,51.7,40.3,29.95,NNE,22,3.0,17.0,65,0.00,,,0.00,239,WeatherCatV1.23B16,2013-11-14 16:45:00,
2013-11-14 10:47:00,51.7,40.7,29.95,NNE,30,4.0,15.0,66,0.00,,,0.00,230,WeatherCatV1.23B16,2013-11-14 16:47:00,
2013-11-14 10:48:00,51.7,40.3,29.95,NNE,15,5.0,15.0,65,0.00,,,0.00,225,WeatherCatV1.23B16,2013-11-14 16:48:00,
2013-11-14 10:50:00,51.6,40.2,29.95,NNE,19,11.0,15.0,65,0.00,,,0.00,229,WeatherCatV1.23B16,2013-11-14 16:50:00,
2013-11-14 10:52:00,51.5,40.1,29.95,NNE,13,11.0,14.0,65,0.00,,,0.00,246,WeatherCatV1.23B16,2013-11-14 16:52:00,
2013-11-14 10:53:00,51.5,40.1,29.95,NNE,30,13.0,15.0,65,0.00,,,0.00,246,WeatherCatV1.23B16,2013-11-14 16:53:00,
2013-11-14 10:54:00,51.4,40.0,29.95,NE,46,4.0,15.0,65,0.00,,,0.00,255,WeatherCatV1.23B16,2013-11-14 16:54:00,
2013-11-14 10:55:00,51.4,40.0,29.95,NNW,348,13.0,14.0,65,0.00,,,0.00,269,WeatherCatV1.23B16,2013-11-14 16:55:00,
2013-11-14 10:56:00,51.4,40.0,29.95,NNE,19,4.0,14.0,65,0.00,,,0.00,285,WeatherCatV1.23B16,2013-11-14 16:56:00,
2013-11-14 10:57:00,51.5,40.5,29.95,NNE,13,12.0,12.0,66,0.00,,,0.00,315,WeatherCatV1.23B16,2013-11-14 16:57:00,
2013-11-14 10:58:00,51.5,40.5,29.95,NNE,24,7.0,12.0,66,0.00,,,0.00,329,WeatherCatV1.23B16,2013-11-14 16:58:00,
2013-11-14 10:59:00,51.5,40.1,29.95,NE,40,7.0,14.0,65,0.00,,,0.00,348,WeatherCatV1.23B16,2013-11-14 16:59:00,
2013-11-14 11:00:00,51.5,40.5,29.95,NE,40,6.0,16.0,66,0.00,,,0.00,339,WeatherCatV1.23B16,2013-11-14 17:00:00,
2013-11-14 11:01:00,51.5,40.5,29.95,NNE,28,6.0,16.0,66,0.00,,,0.00,330,WeatherCatV1.23B16,2013-11-14 17:01:00,
2013-11-14 11:02:00,51.7,40.7,29.95,NNE,32,6.0,12.0,66,0.00,,,0.00,334,WeatherCatV1.23B16,2013-11-14 17:02:00,
2013-11-14 11:03:00,51.8,40.8,29.95,North,0,11.0,17.0,66,0.00,,,0.00,279,WeatherCatV1.23B16,2013-11-14 17:03:00,
2013-11-14 11:04:00,51.8,40.4,29.95,NNE,15,9.0,17.0,65,0.00,,,0.00,279,WeatherCatV1.23B16,2013-11-14 17:04:00,
2013-11-14 11:06:00,51.8,40.4,29.95,North,0,4.0,11.0,65,0.00,,,0.00,294,WeatherCatV1.23B16,2013-11-14 17:06:00,
2013-11-14 11:07:00,51.9,40.5,29.95,North,0,6.0,13.0,65,0.00,,,0.00,287,WeatherCatV1.23B16,2013-11-14 17:07:00,
2013-11-14 11:08:00,51.9,40.5,29.95,NE,46,5.0,13.0,65,0.00,,,0.00,271,WeatherCatV1.23B16,2013-11-14 17:08:00,
2013-11-14 11:09:00,51.9,40.5,29.95,NNE,19,4.0,11.0,65,0.00,,,0.00,248,WeatherCatV1.23B16,2013-11-14 17:09:00,
2013-11-14 11:11:00,51.9,40.5,29.95,NNE,18,9.0,15.0,65,0.00,,,0.00,234,WeatherCatV1.23B16,2013-11-14 17:11:00,
2013-11-14 11:12:00,51.9,40.5,29.95,NNE,26,4.0,16.0,65,0.00,,,0.00,234,WeatherCatV1.23B16,2013-11-14 17:12:00,
2013-11-14 11:13:00,51.9,40.5,29.95,NNE,22,5.0,12.0,65,0.00,,,0.00,237,WeatherCatV1.23B16,2013-11-14 17:13:00,
2013-11-14 11:14:00,51.9,40.5,29.95,NNE,33,6.0,10.0,65,0.00,,,0.00,239,WeatherCatV1.23B16,2013-11-14 17:14:00,
2013-11-14 11:16:00,52.0,40.6,29.95,North,11,5.0,12.0,65,0.00,,,0.00,218,WeatherCatV1.23B16,2013-11-14 17:16:00,
2013-11-14 11:17:00,52.0,40.6,29.95,North,355,11.0,11.0,65,0.00,,,0.00,213,WeatherCatV1.23B16,2013-11-14 17:17:00,
2013-11-14 11:18:00,52.0,40.6,29.95,NNE,14,11.0,12.0,65,0.00,,,0.00,213,WeatherCatV1.23B16,2013-11-14 17:18:00,
2013-11-14 11:19:00,51.9,40.5,29.95,NNW,344,6.0,14.0,65,0.00,,,0.00,230,WeatherCatV1.23B16,2013-11-14 17:19:00,
2013-11-14 11:20:00,51.9,40.5,29.95,NNE,26,10.0,14.0,65,0.00,,,0.00,236,WeatherCatV1.23B16,2013-11-14 17:20:00,
2013-11-14 11:21:00,51.9,40.5,29.95,NNE,21,0.0,13.0,65,0.00,,,0.00,265,WeatherCatV1.23B16,2013-11-14 17:21:00,
2013-11-14 11:23:00,51.9,40.5,29.95,NNW,342,6.0,11.0,65,0.00,,,0.00,258,WeatherCatV1.23B16,2013-11-14 17:23:00,
2013-11-14 11:25:00,51.9,40.5,29.95,NNW,347,9.0,13.0,65,0.00,,,0.00,396,WeatherCatV1.23B16,2013-11-14 17:25:00,
2013-11-14 11:26:00,52.0,40.6,29.95,NNE,15,12.0,12.0,65,0.00,,,0.00,394,WeatherCatV1.23B16,2013-11-14 17:26:00,
2013-11-14 11:28:00,52.2,40.8,29.95,North,0,5.0,14.0,65,0.00,,,0.00,417,WeatherCatV1.23B16,2013-11-14 17:28:00,
2013-11-14 11:30:00,52.3,41.3,29.94,NNE,18,9.0,12.0,66,0.00,,,0.00,487,WeatherCatV1.23B16,2013-11-14 17:30:00,
2013-11-14 11:31:00,52.5,41.1,29.94,NE,43,11.0,11.0,65,0.00,,,0.00,508,WeatherCatV1.23B16,2013-11-14 17:31:00,
2013-11-14 11:33:00,52.8,41.4,29.94,NE,42,12.0,19.0,65,0.00,,,0.00,534,WeatherCatV1.23B16,2013-11-14 17:33:00,
2013-11-14 11:35:00,52.9,41.1,29.94,NNE,19,5.0,19.0,64,0.00,,,0.00,536,WeatherCatV1.23B16,2013-11-14 17:35:00,
2013-11-14 11:36:00,53.0,41.2,29.94,NNW,344,2.0,9.0,64,0.00,,,0.00,534,WeatherCatV1.23B16,2013-11-14 17:36:00,
2013-11-14 11:38:00,53.3,41.4,29.94,NNE,28,4.0,9.0,64,0.00,,,0.00,541,WeatherCatV1.23B16,2013-11-14 17:38:00,
2013-11-14 11:40:00,53.6,41.7,29.94,North,11,4.0,10.0,64,0.00,,,0.00,543,WeatherCatV1.23B16,2013-11-14 17:40:00,
2013-11-14 11:41:00,53.8,41.9,29.94,NNE,13,2.0,10.0,64,0.00,,,0.00,543,WeatherCatV1.23B16,2013-11-14 17:41:00,
2013-11-14 11:44:00,54.6,42.3,29.93,NNE,31,6.0,10.0,63,0.00,,,0.00,540,WeatherCatV1.23B16,2013-11-14 17:44:00,
2013-11-14 11:45:00,54.7,41.9,29.93,North,9,6.0,15.0,62,0.00,,,0.00,538,WeatherCatV1.23B16,2013-11-14 17:45:00,
2013-11-14 11:46:00,54.8,42.0,29.93,NNE,28,11.0,15.0,62,0.00,,,0.00,540,WeatherCatV1.23B16,2013-11-14 17:46:00,
2013-11-14 11:49:00,54.8,41.6,29.93,NE,41,10.0,13.0,61,0.00,,,0.00,541,WeatherCatV1.23B16,2013-11-14 17:49:00,
2013-11-14 11:50:00,55.0,41.8,29.93,NE,42,2.0,10.0,61,0.00,,,0.00,540,WeatherCatV1.23B16,2013-11-14 17:50:00,
2013-11-14 11:51:00,55.1,41.9,29.94,NE,38,1.0,4.0,61,0.00,,,0.00,545,WeatherCatV1.23B16,2013-11-14 17:51:00,
2013-11-14 11:52:00,55.3,42.1,29.94,NNE,28,7.0,13.0,61,0.00,,,0.00,545,WeatherCatV1.23B16,2013-11-14 17:52:00,
2013-11-14 11:54:00,55.7,42.0,29.93,NE,41,3.0,15.0,60,0.00,,,0.00,555,WeatherCatV1.23B16,2013-11-14 17:54:00,
2013-11-14 11:55:00,55.9,41.8,29.93,NNE,29,9.0,13.0,59,0.00,,,0.00,561,WeatherCatV1.23B16,2013-11-14 17:55:00,
2013-11-14 11:56:00,55.9,41.8,29.93,NE,40,5.0,14.0,59,0.00,,,0.00,568,WeatherCatV1.23B16,2013-11-14 17:56:00,
2013-11-14 11:57:00,55.9,41.3,29.93,NNE,26,3.0,14.0,58,0.00,,,0.00,568,WeatherCatV1.23B16,2013-11-14 17:57:00,
2013-11-14 11:59:00,56.2,42.1,29.94,NNE,22,5.0,9.0,59,0.00,,,0.00,596,WeatherCatV1.23B16,2013-11-14 17:59:00,
2013-11-14 12:00:00,56.4,41.8,29.94,North,350,4.0,9.0,58,0.00,,,0.00,610,WeatherCatV1.23B16,2013-11-14 18:00:00,
2013-11-14 12:01:00,56.5,41.9,29.94,North,0,4.0,7.0,58,0.00,,,0.00,622,WeatherCatV1.23B16,2013-11-14 18:01:00,
2013-11-14 12:02:00,56.6,42.0,29.93,NW,325,8.0,13.0,58,0.00,,,0.00,636,WeatherCatV1.23B16,2013-11-14 18:02:00,
2013-11-14 12:04:00,56.8,41.7,29.93,NNE,14,13.0,15.0,57,0.00,,,0.00,671,WeatherCatV1.23B16,2013-11-14 18:04:00,
2013-11-14 12:05:00,56.8,41.7,29.92,NE,46,10.0,15.0,57,0.00,,,0.00,710,WeatherCatV1.23B16,2013-11-14 18:05:00,
2013-11-14 12:06:00,56.8,41.7,29.92,NE,46,4.0,11.0,57,0.00,,,0.00,729,WeatherCatV1.23B16,2013-11-14 18:06:00,
2013-11-14 12:07:00,56.9,41.8,29.92,NE,41,4.0,8.0,57,0.00,,,0.00,749,WeatherCatV1.23B16,2013-11-14 18:07:00,
2013-11-14 12:09:00,57.0,41.9,29.92,NNE,27,4.0,10.0,57,0.00,,,0.00,443,WeatherCatV1.23B16,2013-11-14 18:09:00,
2013-11-14 12:10:00,57.1,41.5,29.92,NE,55,4.0,10.0,56,0.00,,,0.00,362,WeatherCatV1.23B16,2013-11-14 18:10:00,
2013-11-14 12:12:00,57.0,41.0,29.92,ENE,63,2.0,11.0,55,0.00,,,0.00,362,WeatherCatV1.23B16,2013-11-14 18:12:00,
2013-11-14 12:14:00,56.9,40.9,29.92,North,10,4.0,7.0,55,0.00,,,0.00,406,WeatherCatV1.23B16,2013-11-14 18:14:00,
2013-11-14 12:15:00,57.0,41.0,29.92,NNW,346,10.0,12.0,55,0.00,,,0.00,406,WeatherCatV1.23B16,2013-11-14 18:15:00,
2013-11-14 12:16:00,57.0,41.0,29.92,NNE,30,4.0,12.0,55,0.00,,,0.00,406,WeatherCatV1.23B16,2013-11-14 18:16:00,
2013-11-14 12:17:00,57.2,41.7,29.92,NNE,32,3.0,12.0,56,0.00,,,0.00,406,WeatherCatV1.23B16,2013-11-14 18:17:00,
2013-11-14 12:18:00,57.3,41.7,29.92,ENE,58,7.0,11.0,56,0.00,,,0.00,650,WeatherCatV1.23B16,2013-11-14 18:18:00,
2013-11-14 12:20:00,57.5,41.0,29.92,ENE,57,5.0,12.0,54,0.00,,,0.00,538,WeatherCatV1.23B16,2013-11-14 18:20:00,
2013-11-14 12:21:00,57.6,41.1,29.92,NE,54,6.0,8.0,54,0.00,,,0.00,538,WeatherCatV1.23B16,2013-11-14 18:21:00,
2013-11-14 12:22:00,57.6,41.1,29.92,NE,36,11.0,11.0,54,0.00,,,0.00,459,WeatherCatV1.23B16,2013-11-14 18:22:00,
2013-11-14 12:23:00,57.6,41.1,29.92,NE,42,12.0,13.0,54,0.00,,,0.00,459,WeatherCatV1.23B16,2013-11-14 18:23:00,
2013-11-14 12:25:00,57.5,41.0,29.92,NE,53,3.0,8.0,54,0.00,,,0.00,613,WeatherCatV1.23B16,2013-11-14 18:25:00,
2013-11-14 12:26:00,57.5,41.0,29.92,NE,56,7.0,7.0,54,0.00,,,0.00,613,WeatherCatV1.23B16,2013-11-14 18:26:00,
2013-11-14 12:27:00,57.5,41.0,29.92,NE,36,7.0,11.0,54,0.00,,,0.00,587,WeatherCatV1.23B16,2013-11-14 18:27:00,
2013-11-14 12:28:00,57.6,41.1,29.92,NNE,30,5.0,11.0,54,0.00,,,0.00,613,WeatherCatV1.23B16,2013-11-14 18:28:00,
2013-11-14 12:31:00,57.8,40.8,29.92,NE,35,9.0,13.0,53,0.00,,,0.00,566,WeatherCatV1.23B16,2013-11-14 18:31:00,
2013-11-14 12:32:00,57.8,40.8,29.92,ENE,64,4.0,11.0,53,0.00,,,0.00,654,WeatherCatV1.23B16,2013-11-14 18:32:00,
2013-11-14 12:34:00,58.0,41.5,29.91,ENE,65,0.0,5.0,54,0.00,,,0.00,571,WeatherCatV1.23B16,2013-11-14 18:34:00,
2013-11-14 12:36:00,58.3,41.2,29.91,NNE,27,7.0,12.0,53,0.00,,,0.00,454,WeatherCatV1.23B16,2013-11-14 18:36:00,
2013-11-14 12:37:00,58.3,41.2,29.91,NNW,346,5.0,12.0,53,0.00,,,0.00,454,WeatherCatV1.23B16,2013-11-14 18:37:00,
2013-11-14 12:38:00,58.4,41.3,29.91,NNE,32,6.0,10.0,53,0.00,,,0.00,497,WeatherCatV1.23B16,2013-11-14 18:38:00,
2013-11-14 12:39:00,58.2,41.2,29.91,NE,53,6.0,15.0,53,0.00,,,0.00,573,WeatherCatV1.23B16,2013-11-14 18:39:00,
2013-11-14 12:42:00,58.5,41.4,29.91,NE,55,3.0,7.0,53,0.00,,,0.00,744,WeatherCatV1.23B16,2013-11-14 18:42:00,
2013-11-14 12:43:00,58.7,41.1,29.91,NE,55,5.0,7.0,52,0.00,,,0.00,485,WeatherCatV1.23B16,2013-11-14 18:43:00,
2013-11-14 12:44:00,58.7,41.6,29.91,NE,50,3.0,6.0,53,0.00,,,0.00,582,WeatherCatV1.23B16,2013-11-14 18:44:00,
2013-11-14 12:47:00,59.0,41.4,29.91,NNE,18,12.0,12.0,52,0.00,,,0.00,566,WeatherCatV1.23B16,2013-11-14 18:47:00,
2013-11-14 12:48:00,58.9,41.3,29.91,NE,37,5.0,12.0,52,0.00,,,0.00,513,WeatherCatV1.23B16,2013-11-14 18:48:00,
2013-11-14 12:49:00,58.8,41.2,29.91,NE,36,2.0,6.0,52,0.00,,,0.00,422,WeatherCatV1.23B16,2013-11-14 18:49:00,
2013-11-14 12:52:00,58.9,41.3,29.91,NNE,26,7.0,9.0,52,0.00,,,0.00,424,WeatherCatV1.23B16,2013-11-14 18:52:00,
2013-11-14 12:53:00,59.0,41.4,29.91,NNE,19,1.0,10.0,52,0.00,,,0.00,411,WeatherCatV1.23B16,2013-11-14 18:53:00,
2013-11-14 12:54:00,59.0,41.9,29.91,NNE,28,4.0,5.0,53,0.00,,,0.00,499,WeatherCatV1.23B16,2013-11-14 18:54:00,
2013-11-14 12:57:00,59.0,41.4,29.90,NE,41,6.0,11.0,52,0.00,,,0.00,564,WeatherCatV1.23B16,2013-11-14 18:57:00,
2013-11-14 12:58:00,59.0,40.9,29.90,NE,52,5.0,11.0,51,0.00,,,0.00,503,WeatherCatV1.23B16,2013-11-14 18:58:00,
2013-11-14 12:59:00,59.0,40.9,29.90,NE,52,2.0,7.0,51,0.00,,,0.00,533,WeatherCatV1.23B16,2013-11-14 18:59:00,
2013-11-14 13:00:00,59.0,41.4,29.90,NE,53,2.0,5.0,52,0.00,,,0.00,434,WeatherCatV1.23B16,2013-11-14 19:00:00,
2013-11-14 13:02:00,59.0,41.4,29.90,NE,45,5.0,6.0,52,0.00,,,0.00,362,WeatherCatV1.23B16,2013-11-14 19:02:00,
2013-11-14 13:03:00,59.0,41.4,29.90,NE,53,5.0,7.0,52,0.00,,,0.00,452,WeatherCatV1.23B16,2013-11-14 19:03:00,
2013-11-14 13:04:00,59.0,41.4,29.90,ENE,57,3.0,10.0,52,0.00,,,0.00,374,WeatherCatV1.23B16,2013-11-14 19:04:00,
2013-11-14 13:05:00,58.8,40.7,29.90,NNE,33,4.0,11.0,51,0.00,,,0.00,292,WeatherCatV1.23B16,2013-11-14 19:05:00,
2013-11-14 13:07:00,58.6,41.0,29.90,NE,52,4.0,5.0,52,0.00,,,0.00,281,WeatherCatV1.23B16,2013-11-14 19:07:00,
2013-11-14 13:08:00,58.6,41.0,29.91,NE,52,2.0,6.0,52,0.00,,,0.00,281,WeatherCatV1.23B16,2013-11-14 19:08:00,
2013-11-14 13:09:00,58.5,40.9,29.90,NE,52,5.0,6.0,52,0.00,,,0.00,299,WeatherCatV1.23B16,2013-11-14 19:09:00,
2013-11-14 13:10:00,58.4,40.8,29.90,NE,52,4.0,5.0,52,0.00,,,0.00,313,WeatherCatV1.23B16,2013-11-14 19:10:00,
2013-11-14 13:12:00,58.3,40.8,29.90,NNW,336,3.0,14.0,52,0.00,,,0.00,338,WeatherCatV1.23B16,2013-11-14 19:12:00,
2013-11-14 13:13:00,58.3,40.8,29.90,NNW,345,5.0,6.0,52,0.00,,,0.00,388,WeatherCatV1.23B16,2013-11-14 19:13:00,
2013-11-14 13:15:00,58.4,40.8,29.90,NNW,329,4.0,9.0,52,0.00,,,0.00,478,WeatherCatV1.23B16,2013-11-14 19:15:00,
2013-11-14 13:17:00,58.4,41.3,29.91,North,9,3.0,11.0,53,0.00,,,0.00,376,WeatherCatV1.23B16,2013-11-14 19:17:00,
2013-11-14 13:18:00,58.5,41.4,29.91,North,0,8.0,11.0,53,0.00,,,0.00,376,WeatherCatV1.23B16,2013-11-14 19:18:00,
2013-11-14 13:20:00,58.4,41.3,29.91,NE,53,4.0,14.0,53,0.00,,,0.00,329,WeatherCatV1.23B16,2013-11-14 19:20:00,
2013-11-14 13:23:00,58.4,41.3,29.91,NNE,17,2.0,3.0,53,0.00,,,0.00,274,WeatherCatV1.23B16,2013-11-14 19:23:00,
2013-11-14 13:25:00,58.5,40.9,29.90,NE,44,0.0,6.0,52,0.00,,,0.00,299,WeatherCatV1.23B16,2013-11-14 19:25:00,
2013-11-14 13:26:00,58.4,41.3,29.91,NE,44,2.0,4.0,53,0.00,,,0.00,374,WeatherCatV1.23B16,2013-11-14 19:26:00,
2013-11-14 13:28:00,58.3,41.2,29.90,NE,44,3.0,4.0,53,0.00,,,0.00,357,WeatherCatV1.23B16,2013-11-14 19:28:00,
2013-11-14 13:31:00,58.4,41.3,29.90,NNE,15,2.0,6.0,53,0.00,,,0.00,352,WeatherCatV1.23B16,2013-11-14 19:31:00,
2013-11-14 13:33:00,58.3,41.2,29.90,NNW,348,5.0,5.0,53,0.00,,,0.00,322,WeatherCatV1.23B16,2013-11-14 19:33:00,
2013-11-14 13:36:00,58.4,41.8,29.90,NE,36,0.0,7.0,54,0.00,,,0.00,241,WeatherCatV1.23B16,2013-11-14 19:36:00,
2013-11-14 13:37:00,58.5,41.9,29.90,NNE,28,7.0,7.0,54,0.00,,,0.00,522,WeatherCatV1.23B16,2013-11-14 19:37:00,
2013-11-14 13:38:00,58.6,42.0,29.90,North,349,1.0,7.0,54,0.00,,,0.00,561,WeatherCatV1.23B16,2013-11-14 19:38:00,
2013-11-14 13:41:00,58.9,41.8,29.90,North,0,3.0,11.0,53,0.00,,,0.00,534,WeatherCatV1.23B16,2013-11-14 19:41:00,
2013-11-14 13:42:00,59.0,41.9,29.90,North,0,9.0,9.0,53,0.00,,,0.00,566,WeatherCatV1.23B16,2013-11-14 19:42:00,
2013-11-14 13:43:00,59.0,41.9,29.90,NE,41,4.0,9.0,53,0.00,,,0.00,591,WeatherCatV1.23B16,2013-11-14 19:43:00,
2013-11-14 13:44:00,59.0,41.9,29.90,NNE,33,1.0,9.0,53,0.00,,,0.00,591,WeatherCatV1.23B16,2013-11-14 19:44:00,
2013-11-14 13:46:00,59.0,41.9,29.90,North,0,3.0,7.0,53,0.00,,,0.00,239,WeatherCatV1.23B16,2013-11-14 19:46:00,
2013-11-14 13:48:00,59.0,41.9,29.90,NNW,342,1.0,7.0,53,0.00,,,0.00,301,WeatherCatV1.23B16,2013-11-14 19:48:00,
2013-11-14 13:49:00,59.0,41.9,29.90,North,355,2.0,7.0,53,0.00,,,0.00,323,WeatherCatV1.23B16,2013-11-14 19:49:00,
2013-11-14 13:52:00,59.0,42.8,29.90,NNE,19,2.0,6.0,55,0.00,,,0.00,471,WeatherCatV1.23B16,2013-11-14 19:52:00,
2013-11-14 13:53:00,59.0,41.9,29.90,NNE,19,4.0,6.0,53,0.00,,,0.00,236,WeatherCatV1.23B16,2013-11-14 19:53:00,
2013-11-14 13:54:00,59.0,41.9,29.90,NNE,17,1.0,6.0,53,0.00,,,0.00,216,WeatherCatV1.23B16,2013-11-14 19:54:00,
2013-11-14 13:57:00,58.8,42.2,29.89,NNE,16,2.0,4.0,54,0.00,,,0.00,229,WeatherCatV1.23B16,2013-11-14 19:57:00,
2013-11-14 13:58:00,58.7,41.6,29.89,NE,36,3.0,8.0,53,0.00,,,0.00,234,WeatherCatV1.23B16,2013-11-14 19:58:00,
2013-11-14 13:59:00,58.6,41.5,29.89,NE,36,3.0,8.0,53,0.00,,,0.00,236,WeatherCatV1.23B16,2013-11-14 19:59:00,
2013-11-14 14:02:00,58.5,41.9,29.89,NE,34,2.0,4.0,54,0.00,,,0.00,258,WeatherCatV1.23B16,2013-11-14 20:02:00,
2013-11-14 14:03:00,58.5,41.9,29.89,NNE,24,5.0,5.0,54,0.00,,,0.00,258,WeatherCatV1.23B16,2013-11-14 20:03:00,
2013-11-14 14:04:00,58.5,41.9,29.89,NW,317,3.0,7.0,54,0.00,,,0.00,258,WeatherCatV1.23B16,2013-11-14 20:04:00,
2013-11-14 14:07:00,58.5,41.9,29.89,NE,41,7.0,11.0,54,0.00,,,0.00,329,WeatherCatV1.23B16,2013-11-14 20:07:00,
2013-11-14 14:08:00,58.5,41.9,29.89,NE,38,3.0,6.0,54,0.00,,,0.00,448,WeatherCatV1.23B16,2013-11-14 20:08:00,
2013-11-14 14:09:00,58.5,41.9,29.89,NE,37,3.0,6.0,54,0.00,,,0.00,448,WeatherCatV1.23B16,2013-11-14 20:09:00,
2013-11-14 14:12:00,58.8,41.7,29.89,NNW,340,0.0,7.0,53,0.00,,,0.00,360,WeatherCatV1.23B16,2013-11-14 20:12:00,
2013-11-14 14:14:00,58.9,42.3,29.89,NNW,338,0.0,4.0,54,0.00,,,0.00,404,WeatherCatV1.23B16,2013-11-14 20:14:00,
2013-11-14 14:15:00,58.9,41.8,29.89,North,0,0.0,6.0,53,0.00,,,0.00,404,WeatherCatV1.23B16,2013-11-14 20:15:00,
2013-11-14 14:17:00,59.0,42.4,29.89,North,355,3.0,5.0,54,0.00,,,0.00,192,WeatherCatV1.23B16,2013-11-14 20:17:00,
2013-11-14 14:19:00,59.0,42.4,29.88,North,355,3.0,5.0,54,0.00,,,0.00,454,WeatherCatV1.23B16,2013-11-14 20:19:00,
2013-11-14 14:20:00,59.0,42.4,29.89,North,355,2.0,5.0,54,0.00,,,0.00,443,WeatherCatV1.23B16,2013-11-14 20:20:00,
2013-11-14 14:23:00,59.0,41.9,29.89,North,0,2.0,7.0,53,0.00,,,0.00,425,WeatherCatV1.23B16,2013-11-14 20:23:00,
2013-11-14 14:24:00,59.1,42.0,29.88,North,0,3.0,7.0,53,0.00,,,0.00,422,WeatherCatV1.23B16,2013-11-14 20:24:00,
2013-11-14 14:25:00,59.2,42.1,29.88,North,355,0.0,7.0,53,0.00,,,0.00,418,WeatherCatV1.23B16,2013-11-14 20:25:00,
2013-11-14 14:28:00,59.1,42.0,29.88,NNE,19,3.0,7.0,53,0.00,,,0.00,404,WeatherCatV1.23B16,2013-11-14 20:28:00,
2013-11-14 14:29:00,59.0,41.9,29.88,NNE,25,2.0,7.0,53,0.00,,,0.00,403,WeatherCatV1.23B16,2013-11-14 20:29:00,
2013-11-14 14:30:00,59.0,41.9,29.88,NNE,28,11.0,11.0,53,0.00,,,0.00,399,WeatherCatV1.23B16,2013-11-14 20:30:00,
2013-11-14 14:33:00,59.0,41.4,29.88,NNW,341,2.0,7.0,52,0.00,,,0.00,394,WeatherCatV1.23B16,2013-11-14 20:33:00,
2013-11-14 14:34:00,59.0,40.9,29.88,North,0,4.0,9.0,51,0.00,,,0.00,394,WeatherCatV1.23B16,2013-11-14 20:34:00,
2013-11-14 14:35:00,59.0,40.9,29.88,NNW,342,3.0,9.0,51,0.00,,,0.00,390,WeatherCatV1.23B16,2013-11-14 20:35:00,
2013-11-14 14:38:00,59.0,40.9,29.88,North,9,0.0,11.0,51,0.00,,,0.00,381,WeatherCatV1.23B16,2013-11-14 20:38:00,
2013-11-14 14:39:00,59.0,40.9,29.88,NNW,337,4.0,6.0,51,0.00,,,0.00,381,WeatherCatV1.23B16,2013-11-14 20:39:00,
2013-11-14 14:40:00,59.0,40.9,29.88,NW,323,4.0,7.0,51,0.00,,,0.00,380,WeatherCatV1.23B16,2013-11-14 20:40:00,
2013-11-14 14:41:00,59.0,40.9,29.89,NNE,24,7.0,7.0,51,0.00,,,0.00,376,WeatherCatV1.23B16,2013-11-14 20:41:00,
2013-11-14 14:44:00,59.0,40.4,29.88,NW,314,8.0,10.0,50,0.00,,,0.00,367,WeatherCatV1.23B16,2013-11-14 20:44:00,
2013-11-14 14:45:00,59.0,40.9,29.88,NW,313,0.0,9.0,51,0.00,,,0.00,367,WeatherCatV1.23B16,2013-11-14 20:45:00,
2013-11-14 14:46:00,59.0,40.9,29.88,NW,313,0.0,3.0,51,0.00,,,0.00,366,WeatherCatV1.23B16,2013-11-14 20:46:00,
2013-11-14 14:49:00,59.0,40.9,29.88,NNW,339,3.0,5.0,51,0.00,,,0.00,357,WeatherCatV1.23B16,2013-11-14 20:49:00,
2013-11-14 14:50:00,59.0,40.9,29.88,NNW,347,1.0,7.0,51,0.00,,,0.00,355,WeatherCatV1.23B16,2013-11-14 20:50:00,
2013-11-14 14:51:00,59.0,40.9,29.88,NNW,347,2.0,7.0,51,0.00,,,0.00,355,WeatherCatV1.23B16,2013-11-14 20:51:00,
2013-11-14 14:54:00,59.0,40.4,29.88,North,355,5.0,5.0,50,0.00,,,0.00,346,WeatherCatV1.23B16,2013-11-14 20:54:00,
2013-11-14 14:55:00,59.0,40.4,29.88,North,355,2.0,5.0,50,0.00,,,0.00,346,WeatherCatV1.23B16,2013-11-14 20:55:00,
2013-11-14 14:56:00,59.0,40.4,29.88,North,355,3.0,5.0,50,0.00,,,0.00,343,WeatherCatV1.23B16,2013-11-14 20:56:00,
2013-11-14 14:57:00,59.0,40.9,29.88,North,355,2.0,5.0,51,0.00,,,0.00,343,WeatherCatV1.23B16,2013-11-14 20:57:00,
2013-11-14 14:59:00,59.0,40.4,29.88,NNE,29,6.0,10.0,50,0.00,,,0.00,338,WeatherCatV1.23B16,2013-11-14 20:59:00,
2013-11-14 15:00:00,58.9,40.3,29.88,NNE,29,2.0,6.0,50,0.00,,,0.00,334,WeatherCatV1.23B16,2013-11-14 21:00:00,
2013-11-14 15:01:00,58.9,40.8,29.88,North,5,7.0,7.0,51,0.00,,,0.00,332,WeatherCatV1.23B16,2013-11-14 21:01:00,
2013-11-14 15:02:00,58.9,40.8,29.88,NNW,338,3.0,9.0,51,0.00,,,0.00,330,WeatherCatV1.23B16,2013-11-14 21:02:00,
2013-11-14 15:05:00,59.0,40.9,29.88,North,350,5.0,6.0,51,0.00,,,0.00,323,WeatherCatV1.23B16,2013-11-14 21:05:00,
2013-11-14 15:06:00,59.0,40.9,29.88,NNW,342,3.0,6.0,51,0.00,,,0.00,322,WeatherCatV1.23B16,2013-11-14 21:06:00,
2013-11-14 15:07:00,59.0,40.9,29.88,NNW,342,3.0,5.0,51,0.00,,,0.00,318,WeatherCatV1.23B16,2013-11-14 21:07:00,
2013-11-14 15:10:00,59.0,40.9,29.88,North,355,3.0,4.0,51,0.00,,,0.00,311,WeatherCatV1.23B16,2013-11-14 21:10:00,
2013-11-14 15:11:00,59.0,40.9,29.88,North,0,2.0,5.0,51,0.00,,,0.00,308,WeatherCatV1.23B16,2013-11-14 21:11:00,
2013-11-14 15:12:00,58.9,40.8,29.88,North,0,2.0,5.0,51,0.00,,,0.00,306,WeatherCatV1.23B16,2013-11-14 21:12:00,
2013-11-14 15:13:00,58.7,40.6,29.88,NNE,28,1.0,5.0,51,0.00,,,0.00,301,WeatherCatV1.23B16,2013-11-14 21:13:00,
2013-11-14 15:15:00,58.6,40.5,29.88,NE,36,5.0,5.0,51,0.00,,,0.00,297,WeatherCatV1.23B16,2013-11-14 21:15:00,
2013-11-14 15:16:00,58.5,40.4,29.88,NE,38,3.0,5.0,51,0.00,,,0.00,294,WeatherCatV1.23B16,2013-11-14 21:16:00,
2013-11-14 15:17:00,58.5,40.4,29.88,NE,38,0.0,5.0,51,0.00,,,0.00,290,WeatherCatV1.23B16,2013-11-14 21:17:00,
2013-11-14 15:19:00,58.6,40.5,29.88,NE,37,0.0,4.0,51,0.00,,,0.00,285,WeatherCatV1.23B16,2013-11-14 21:19:00,
2013-11-14 15:20:00,58.7,40.6,29.88,North,350,2.0,7.0,51,0.00,,,0.00,281,WeatherCatV1.23B16,2013-11-14 21:20:00,
2013-11-14 15:21:00,58.9,40.8,29.88,NNW,348,6.0,7.0,51,0.00,,,0.00,279,WeatherCatV1.23B16,2013-11-14 21:21:00,
2013-11-14 15:22:00,58.9,40.8,29.88,NNW,338,6.0,6.0,51,0.00,,,0.00,278,WeatherCatV1.23B16,2013-11-14 21:22:00,
2013-11-14 15:24:00,59.0,40.9,29.88,North,0,0.0,8.0,51,0.00,,,0.00,272,WeatherCatV1.23B16,2013-11-14 21:24:00,
2013-11-14 15:25:00,59.0,40.9,29.88,North,9,0.0,6.0,51,0.00,,,0.00,267,WeatherCatV1.23B16,2013-11-14 21:25:00,
2013-11-14 15:26:00,59.0,40.9,29.88,North,9,0.0,6.0,51,0.00,,,0.00,264,WeatherCatV1.23B16,2013-11-14 21:26:00,
2013-11-14 15:27:00,59.0,40.9,29.88,North,0,7.0,10.0,51,0.00,,,0.00,264,WeatherCatV1.23B16,2013-11-14 21:27:00,
2013-11-14 15:28:00,59.0,40.9,29.88,North,355,4.0,10.0,51,0.00,,,0.00,260,WeatherCatV1.23B16,2013-11-14 21:28:00,
2013-11-14 15:29:00,59.0,40.4,29.88,North,0,2.0,9.0,50,0.00,,,0.00,258,WeatherCatV1.23B16,2013-11-14 21:29:00,
2013-11-14 15:30:00,59.0,40.9,29.88,North,0,6.0,7.0,51,0.00,,,0.00,251,WeatherCatV1.23B16,2013-11-14 21:30:00,
2013-11-14 15:31:00,58.9,40.8,29.88,North,5,1.0,7.0,51,0.00,,,0.00,246,WeatherCatV1.23B16,2013-11-14 21:31:00,
2013-11-14 15:32:00,58.9,40.8,29.88,North,0,0.0,7.0,51,0.00,,,0.00,246,WeatherCatV1.23B16,2013-11-14 21:32:00,
2013-11-14 15:33:00,58.9,40.8,29.88,NW,325,6.0,6.0,51,0.00,,,0.00,244,WeatherCatV1.23B16,2013-11-14 21:33:00,
2013-11-14 15:34:00,58.9,40.8,29.88,NNW,330,2.0,6.0,51,0.00,,,0.00,241,WeatherCatV1.23B16,2013-11-14 21:34:00,
2013-11-14 15:36:00,58.9,40.8,29.88,NNW,340,5.0,9.0,51,0.00,,,0.00,236,WeatherCatV1.23B16,2013-11-14 21:36:00,
2013-11-14 15:37:00,58.9,40.3,29.88,NNW,342,6.0,9.0,50,0.00,,,0.00,232,WeatherCatV1.23B16,2013-11-14 21:37:00,
2013-11-14 15:39:00,58.8,40.2,29.89,NNE,21,3.0,10.0,50,0.00,,,0.00,227,WeatherCatV1.23B16,2013-11-14 21:39:00,
2013-11-14 15:41:00,58.6,40.5,29.88,NNW,342,6.0,7.0,51,0.00,,,0.00,218,WeatherCatV1.23B16,2013-11-14 21:41:00,
2013-11-14 15:42:00,58.6,40.5,29.88,NNW,342,0.0,6.0,51,0.00,,,0.00,214,WeatherCatV1.23B16,2013-11-14 21:42:00,
2013-11-14 15:43:00,58.5,40.4,29.89,NNW,342,0.0,2.0,51,0.00,,,0.00,211,WeatherCatV1.23B16,2013-11-14 21:43:00,
2013-11-14 15:44:00,58.5,40.4,29.89,NNW,342,3.0,4.0,51,0.00,,,0.00,207,WeatherCatV1.23B16,2013-11-14 21:44:00,
2013-11-14 15:46:00,58.6,40.5,29.89,North,0,6.0,6.0,51,0.00,,,0.00,202,WeatherCatV1.23B16,2013-11-14 21:46:00,
2013-11-14 15:47:00,58.5,40.4,29.89,North,0,5.0,6.0,51,0.00,,,0.00,195,WeatherCatV1.23B16,2013-11-14 21:47:00,
2013-11-14 15:48:00,58.5,40.4,29.89,North,0,3.0,6.0,51,0.00,,,0.00,195,WeatherCatV1.23B16,2013-11-14 21:48:00,
2013-11-14 15:49:00,58.5,40.4,29.89,North,0,2.0,6.0,51,0.00,,,0.00,193,WeatherCatV1.23B16,2013-11-14 21:49:00,
2013-11-14 15:51:00,58.3,40.2,29.88,North,0,1.0,5.0,51,0.00,,,0.00,183,WeatherCatV1.23B16,2013-11-14 21:51:00,
2013-11-14 15:52:00,58.4,40.3,29.89,North,0,0.0,3.0,51,0.00,,,0.00,179,WeatherCatV1.23B16,2013-11-14 21:52:00,
2013-11-14 15:53:00,58.4,40.3,29.88,North,0,0.0,3.0,51,0.00,,,0.00,179,WeatherCatV1.23B16,2013-11-14 21:53:00,
2013-11-14 15:54:00,58.4,40.3,29.89,North,0,1.0,2.0,51,0.00,,,0.00,174,WeatherCatV1.23B16,2013-11-14 21:54:00,
2013-11-14 15:56:00,58.5,40.4,29.89,North,0,1.0,4.0,51,0.00,,,0.00,167,WeatherCatV1.23B16,2013-11-14 21:56:00,
2013-11-14 15:58:00,58.6,40.5,29.89,North,0,2.0,2.0,51,0.00,,,0.00,163,WeatherCatV1.23B16,2013-11-14 21:58:00,
2013-11-14 15:59:00,58.7,40.6,29.89,North,0,1.0,4.0,51,0.00,,,0.00,158,WeatherCatV1.23B16,2013-11-14 21:59:00,
2013-11-14 16:00:00,58.7,40.6,29.89,North,0,0.0,4.0,51,0.00,,,0.00,155,WeatherCatV1.23B16,2013-11-14 22:00:00,
2013-11-14 16:03:00,58.7,40.1,29.89,North,0,3.0,3.0,50,0.00,,,0.00,146,WeatherCatV1.23B16,2013-11-14 22:03:00,
2013-11-14 16:04:00,58.8,40.2,29.89,North,0,0.0,1.0,50,0.00,,,0.00,139,WeatherCatV1.23B16,2013-11-14 22:04:00,
2013-11-14 16:06:00,58.8,40.2,29.89,North,0,0.0,1.0,50,0.00,,,0.00,137,WeatherCatV1.23B16,2013-11-14 22:06:00,
2013-11-14 16:08:00,58.8,40.7,29.89,North,0,0.0,1.0,51,0.00,,,0.00,127,WeatherCatV1.23B16,2013-11-14 22:08:00,
2013-11-14 16:10:00,58.9,40.3,29.89,North,0,0.0,3.0,50,0.00,,,0.00,123,WeatherCatV1.23B16,2013-11-14 22:10:00,
2013-11-14 16:11:00,58.9,40.3,29.89,North,0,0.0,3.0,50,0.00,,,0.00,118,WeatherCatV1.23B16,2013-11-14 22:11:00,
2013-11-14 16:13:00,58.9,40.3,29.89,North,0,0.0,4.0,50,0.00,,,0.00,111,WeatherCatV1.23B16,2013-11-14 22:13:00,
2013-11-14 16:15:00,58.8,39.7,29.89,North,0,1.0,4.0,49,0.00,,,0.00,105,WeatherCatV1.23B16,2013-11-14 22:15:00,
2013-11-14 16:16:00,58.7,40.1,29.89,North,0,0.0,3.0,50,0.00,,,0.00,104,WeatherCatV1.23B16,2013-11-14 22:16:00,
2013-11-14 16:18:00,58.7,39.6,29.89,North,0,0.0,1.0,49,0.00,,,0.00,97,WeatherCatV1.23B16,2013-11-14 22:18:00,
2013-11-14 16:19:00,58.7,39.6,29.89,North,0,0.0,1.0,49,0.00,,,0.00,95,WeatherCatV1.23B16,2013-11-14 22:19:00,
2013-11-14 16:20:00,58.6,39.5,29.89,North,0,0.0,1.0,49,0.00,,,0.00,91,WeatherCatV1.23B16,2013-11-14 22:20:00,
2013-11-14 16:21:00,58.5,39.9,29.89,North,0,0.0,1.0,50,0.00,,,0.00,86,WeatherCatV1.23B16,2013-11-14 22:21:00,
2013-11-14 16:23:00,58.6,40.0,29.89,North,0,1.0,4.0,50,0.00,,,0.00,81,WeatherCatV1.23B16,2013-11-14 22:23:00,
2013-11-14 16:24:00,58.5,39.9,29.89,North,0,1.0,4.0,50,0.00,,,0.00,81,WeatherCatV1.23B16,2013-11-14 22:24:00,
2013-11-14 16:25:00,58.5,39.4,29.89,NW,318,0.0,7.0,49,0.00,,,0.00,77,WeatherCatV1.23B16,2013-11-14 22:25:00,
2013-11-14 16:26:00,58.4,39.3,29.89,NW,318,2.0,7.0,49,0.00,,,0.00,74,WeatherCatV1.23B16,2013-11-14 22:26:00,
2013-11-14 16:28:00,58.2,39.1,29.89,NW,318,4.0,5.0,49,0.00,,,0.00,69,WeatherCatV1.23B16,2013-11-14 22:28:00,
2013-11-14 16:29:00,58.2,39.1,29.89,NW,318,2.0,4.0,49,0.00,,,0.00,67,WeatherCatV1.23B16,2013-11-14 22:29:00,
2013-11-14 16:30:00,58.1,39.0,29.89,NW,318,0.0,4.0,49,0.00,,,0.00,63,WeatherCatV1.23B16,2013-11-14 22:30:00,
2013-11-14 16:31:00,58.0,39.0,29.89,NW,318,3.0,4.0,49,0.00,,,0.00,62,WeatherCatV1.23B16,2013-11-14 22:31:00,
2013-11-14 16:34:00,57.8,38.8,29.89,NW,318,5.0,5.0,49,0.00,,,0.00,54,WeatherCatV1.23B16,2013-11-14 22:34:00,
2013-11-14 16:36:00,57.6,38.6,29.89,NW,318,3.0,6.0,49,0.00,,,0.00,49,WeatherCatV1.23B16,2013-11-14 22:36:00,
2013-11-14 16:37:00,57.6,38.6,29.89,NW,318,1.0,4.0,49,0.00,,,0.00,47,WeatherCatV1.23B16,2013-11-14 22:37:00,
2013-11-14 16:39:00,57.5,38.5,29.89,NW,319,2.0,2.0,49,0.00,,,0.00,44,WeatherCatV1.23B16,2013-11-14 22:39:00,
2013-11-14 16:40:00,57.4,38.4,29.89,NW,319,0.0,3.0,49,0.00,,,0.00,39,WeatherCatV1.23B16,2013-11-14 22:40:00,
2013-11-14 16:41:00,57.3,38.3,29.89,NW,319,0.0,3.0,49,0.00,,,0.00,37,WeatherCatV1.23B16,2013-11-14 22:41:00,
2013-11-14 16:43:00,57.3,38.3,29.89,NW,318,2.0,2.0,49,0.00,,,0.00,35,WeatherCatV1.23B16,2013-11-14 22:43:00,
2013-11-14 16:44:00,57.3,38.3,29.89,NW,319,0.0,2.0,49,0.00,,,0.00,32,WeatherCatV1.23B16,2013-11-14 22:44:00,
2013-11-14 16:45:00,57.2,38.7,29.89,NW,319,0.0,1.0,50,0.00,,,0.00,30,WeatherCatV1.23B16,2013-11-14 22:45:00,
2013-11-14 16:46:00,57.2,38.7,29.89,NW,319,0.0,1.0,50,0.00,,,0.00,26,WeatherCatV1.23B16,2013-11-14 22:46:00,
2013-11-14 16:48:00,57.2,38.2,29.89,NW,319,0.0,0.0,49,0.00,,,0.00,25,WeatherCatV1.23B16,2013-11-14 22:48:00,
2013-11-14 16:49:00,57.1,38.1,29.89,NW,318,0.0,2.0,49,0.00,,,0.00,21,WeatherCatV1.23B16,2013-11-14 22:49:00,
2013-11-14 16:50:00,57.1,38.1,29.89,NW,319,0.0,4.0,49,0.00,,,0.00,19,WeatherCatV1.23B16,2013-11-14 22:50:00,
2013-11-14 16:51:00,57.1,38.1,29.89,NW,319,0.0,4.0,49,0.00,,,0.00,19,WeatherCatV1.23B16,2013-11-14 22:51:00,
2013-11-14 16:52:00,57.0,38.0,29.89,NW,319,0.0,2.0,49,0.00,,,0.00,19,WeatherCatV1.23B16,2013-11-14 22:52:00,
2013-11-14 16:53:00,56.9,38.5,29.89,NW,318,0.0,0.0,50,0.00,,,0.00,16,WeatherCatV1.23B16,2013-11-14 22:53:00,
2013-11-14 16:54:00,56.8,38.4,29.89,NW,319,0.0,1.0,50,0.00,,,0.00,16,WeatherCatV1.23B16,2013-11-14 22:54:00,
2013-11-14 16:55:00,56.8,38.4,29.89,NW,319,0.0,1.0,50,0.00,,,0.00,16,WeatherCatV1.23B16,2013-11-14 22:55:00,
2013-11-14 16:56:00,56.7,38.3,29.89,NW,318,0.0,4.0,50,0.00,,,0.00,14,WeatherCatV1.23B16,2013-11-14 22:56:00,
2013-11-14 16:57:00,56.6,38.2,29.89,NW,318,2.0,4.0,50,0.00,,,0.00,14,WeatherCatV1.23B16,2013-11-14 22:57:00,
2013-11-14 16:58:00,56.5,38.1,29.89,NW,318,0.0,2.0,50,0.00,,,0.00,14,WeatherCatV1.23B16,2013-11-14 22:58:00,
2013-11-14 16:59:00,56.4,38.0,29.88,NW,319,0.0,0.0,50,0.00,,,0.00,12,WeatherCatV1.23B16,2013-11-14 22:59:00,
2013-11-14 17:00:00,56.3,37.9,29.88,NW,319,0.0,0.0,50,0.00,,,0.00,12,WeatherCatV1.23B16,2013-11-14 23:00:00,
2013-11-14 17:01:00,56.2,37.8,29.88,NW,319,0.0,0.0,50,0.00,,,0.00,12,WeatherCatV1.23B16,2013-11-14 23:01:00,
2013-11-14 17:02:00,56.2,37.8,29.88,NW,319,0.0,0.0,50,0.00,,,0.00,12,WeatherCatV1.23B16,2013-11-14 23:02:00,
2013-11-14 17:04:00,56.0,37.6,29.88,NW,319,0.0,0.0,50,0.00,,,0.00,11,WeatherCatV1.23B16,2013-11-14 23:04:00,
2013-11-14 17:05:00,55.9,38.0,29.88,NW,318,0.0,0.0,51,0.00,,,0.00,11,WeatherCatV1.23B16,2013-11-14 23:05:00,
2013-11-14 17:06:00,55.8,37.9,29.88,NW,318,0.0,0.0,51,0.00,,,0.00,11,WeatherCatV1.23B16,2013-11-14 23:06:00,
2013-11-14 17:07:00,55.7,37.8,29.88,NW,318,0.0,0.0,51,0.00,,,0.00,11,WeatherCatV1.23B16,2013-11-14 23:07:00,
2013-11-14 17:09:00,55.6,37.8,29.88,NW,319,0.0,0.0,51,0.00,,,0.00,9,WeatherCatV1.23B16,2013-11-14 23:09:00,
2013-11-14 17:10:00,55.5,37.7,29.88,NW,319,0.0,0.0,51,0.00,,,0.00,9,WeatherCatV1.23B16,2013-11-14 23:10:00,
2013-11-14 17:12:00,55.3,37.5,29.88,NW,318,0.0,0.0,51,0.00,,,0.00,7,WeatherCatV1.23B16,2013-11-14 23:12:00,
2013-11-14 17:13:00,55.3,37.5,29.88,NW,318,0.0,0.0,51,0.00,,,0.00,7,WeatherCatV1.23B16,2013-11-14 23:13:00,
2013-11-14 17:15:00,55.1,37.3,29.88,NW,319,0.0,0.0,51,0.00,,,0.00,5,WeatherCatV1.23B16,2013-11-14 23:15:00,
2013-11-14 17:16:00,55.0,37.7,29.89,NW,319,0.0,0.0,52,0.00,,,0.00,5,WeatherCatV1.23B16,2013-11-14 23:16:00,
2013-11-14 17:17:00,55.0,37.7,29.88,NW,318,0.0,0.0,52,0.00,,,0.00,5,WeatherCatV1.23B16,2013-11-14 23:17:00,
2013-11-14 17:19:00,54.8,37.5,29.89,NW,318,0.0,0.0,52,0.00,,,0.00,5,WeatherCatV1.23B16,2013-11-14 23:19:00,
2013-11-14 17:20:00,54.7,37.4,29.88,NW,319,0.0,0.0,52,0.00,,,0.00,5,WeatherCatV1.23B16,2013-11-14 23:20:00,
2013-11-14 17:21:00,54.6,37.3,29.88,NW,318,0.0,0.0,52,0.00,,,0.00,0,WeatherCatV1.23B16,2013-11-14 23:21:00,
2013-11-14 17:22:00,54.5,37.2,29.89,NW,319,0.0,0.0,52,0.00,,,0.00,0,WeatherCatV1.23B16,2013-11-14 23:22:00,
2013-11-14 17:23:00,54.4,37.2,29.89,NW,318,0.0,0.0,52,0.00,,,0.00,0,WeatherCatV1.23B16,2013-11-14 23:23:00,
2013-11-14 17:24:00,54.3,37.5,29.89,NW,319,0.0,0.0,53,0.00,,,0.00,0,WeatherCatV1.23B16,2013-11-14 23:24:00,
2013-11-14 17:25:00,54.2,37.4,29.89,NW,319,0.0,0.0,53,0.00,,,0.00,0,WeatherCatV1.23B16,2013-11-14 23:25:00,
2013-11-14 17:26:00,54.2,37.4,29.89,NW,319,0.0,0.0,53,0.00,,,0.00,0,WeatherCatV1.23B16,2013-11-14 23:26:00,
2013-11-14 17:27:00,53.9,37.2,29.89,NW,318,0.0,0.0,53,0.00,,,0.00,0,WeatherCatV1.23B16,2013-11-14 23:27:00,
2013-11-14 17:28:00,53.9,37.2,29.89,NW,319,0.0,0.0,53,0.00,,,0.00,0,WeatherCatV1.23B16,2013-11-14 23:28:00,
2013-11-14 17:29:00,53.7,37.0,29.88,NW,319,0.0,0.0,53,0.00,,,0.00,0,WeatherCatV1.23B16,2013-11-14 23:29:00,
2013-11-14 17:30:00,53.6,36.9,29.89,NW,319,0.0,0.0,53,0.00,,,0.00,0,WeatherCatV1.23B16,2013-11-14 23:30:00,
2013-11-14 17:31:00,53.5,36.8,29.89,NW,319,0.0,0.0,53,0.00,,,0.00,0,WeatherCatV1.23B16,2013-11-14 23:31:00,
2013-11-14 17:33:00,53.2,37.0,29.89,NW,319,0.0,0.0,54,0.00,,,0.00,0,WeatherCatV1.23B16,2013-11-14 23:33:00,
2013-11-14 17:34:00,53.2,37.0,29.89,NW,318,0.0,0.0,54,0.00,,,0.00,0,WeatherCatV1.23B16,2013-11-14 23:34:00,
2013-11-14 17:35:00,52.9,36.7,29.89,NW,319,0.0,0.0,54,0.00,,,0.00,0,WeatherCatV1.23B16,2013-11-14 23:35:00,
2013-11-14 17:36:00,52.8,36.6,29.88,NW,319,0.0,0.0,54,0.00,,,0.00,0,WeatherCatV1.23B16,2013-11-14 23:36:00,
2013-11-14 17:37:00,52.7,37.0,29.89,NW,319,0.0,0.0,55,0.00,,,0.00,0,WeatherCatV1.23B16,2013-11-14 23:37:00,
2013-11-14 17:39:00,52.5,36.8,29.89,NW,318,0.0,0.0,55,0.00,,,0.00,0,WeatherCatV1.23B16,2013-11-14 23:39:00,
2013-11-14 17:40:00,52.4,36.7,29.88,NW,319,0.0,0.0,55,0.00,,,0.00,0,WeatherCatV1.23B16,2013-11-14 23:40:00,
2013-11-14 17:41:00,52.2,36.5,29.88,NW,319,0.0,0.0,55,0.00,,,0.00,0,WeatherCatV1.23B16,2013-11-14 23:41:00,
2013-11-14 17:42:00,52.1,36.4,29.89,NW,319,0.0,0.0,55,0.00,,,0.00,0,WeatherCatV1.23B16,2013-11-14 23:42:00,
2013-11-14 17:44:00,51.9,36.7,29.89,NW,319,0.0,0.0,56,0.00,,,0.00,0,WeatherCatV1.23B16,2013-11-14 23:44:00,
2013-11-14 17:45:00,51.8,36.6,29.89,NW,318,0.0,0.0,56,0.00,,,0.00,0,WeatherCatV1.23B16,2013-11-14 23:45:00,
2013-11-14 17:46:00,51.5,36.8,29.89,NW,318,0.0,0.0,57,0.00,,,0.00,0,WeatherCatV1.23B16,2013-11-14 23:46:00,
2013-11-14 17:47:00,51.4,36.7,29.88,NW,319,0.0,0.0,57,0.00,,,0.00,0,WeatherCatV1.23B16,2013-11-14 23:47:00,
2013-11-14 17:49:00,51.2,36.5,29.88,NW,319,0.0,0.0,57,0.00,,,0.00,0,WeatherCatV1.23B16,2013-11-14 23:49:00,
2013-11-14 17:50:00,51.1,36.4,29.88,NW,319,0.0,0.0,57,0.00,,,0.00,0,WeatherCatV1.23B16,2013-11-14 23:50:00,
2013-11-14 17:52:00,50.8,36.6,29.88,NW,319,0.0,0.0,58,0.00,,,0.00,0,WeatherCatV1.23B16,2013-11-14 23:52:00,
2013-11-14 17:53:00,50.7,36.5,29.88,NW,318,0.0,0.0,58,0.00,,,0.00,0,WeatherCatV1.23B16,2013-11-14 23:53:00,
2013-11-14 17:54:00,50.6,36.8,29.88,NW,319,0.0,0.0,59,0.00,,,0.00,0,WeatherCatV1.23B16,2013-11-14 23:54:00,
2013-11-14 17:55:00,50.5,36.7,29.88,NW,319,0.0,0.0,59,0.00,,,0.00,0,WeatherCatV1.23B16,2013-11-14 23:55:00,
2013-11-14 17:56:00,50.4,36.6,29.88,NW,319,0.0,0.0,59,0.00,,,0.00,0,WeatherCatV1.23B16,2013-11-14 23:56:00,
2013-11-14 17:57:00,50.3,36.5,29.88,NW,318,0.0,0.0,59,0.00,,,0.00,0,WeatherCatV1.23B16,2013-11-14 23:57:00,
2013-11-14 17:58:00,50.1,36.3,29.88,NW,319,0.0,0.0,59,0.00,,,0.00,0,WeatherCatV1.23B16,2013-11-14 23:58:00,
2013-11-14 17:59:00,50.0,36.7,29.88,NW,319,0.0,0.0,60,0.00,,,0.00,0,WeatherCatV1.23B16,2013-11-14 23:59:00,
2013-11-14 18:01:00,49.9,36.6,29.89,NW,318,0.0,0.0,60,0.00,,,0.00,0,WeatherCatV1.23B16,2013-11-15 00:01:00,
2013-11-14 18:02:00,49.7,36.4,29.89,NW,318,0.0,0.0,60,0.00,,,0.00,0,WeatherCatV1.23B16,2013-11-15 00:02:00,
2013-11-14 18:03:00,49.6,36.3,29.89,NW,319,0.0,0.0,60,0.00,,,0.00,0,WeatherCatV1.23B16,2013-11-15 00:03:00,
2013-11-14 18:04:00,49.4,36.1,29.89,NW,319,0.0,0.0,60,0.00,,,0.00,0,WeatherCatV1.23B16,2013-11-15 00:04:00,
2013-11-14 18:06:00,49.2,36.3,29.89,NW,319,0.0,0.0,61,0.00,,,0.00,0,WeatherCatV1.23B16,2013-11-15 00:06:00,
2013-11-14 18:07:00,49.1,36.2,29.89,NW,318,0.0,0.0,61,0.00,,,0.00,0,WeatherCatV1.23B16,2013-11-15 00:07:00,
2013-11-14 18:09:00,48.8,36.4,29.88,NW,319,0.0,0.0,62,0.00,,,0.00,0,WeatherCatV1.23B16,2013-11-15 00:09:00,
2013-11-14 18:10:00,48.7,36.3,29.88,NW,318,0.0,0.0,62,0.00,,,0.00,0,WeatherCatV1.23B16,2013-11-15 00:10:00,
2013-11-14 18:11:00,48.6,36.2,29.89,NW,319,0.0,0.0,62,0.00,,,0.00,0,WeatherCatV1.23B16,2013-11-15 00:11:00,
2013-11-14 18:12:00,48.5,36.1,29.89,NW,319,0.0,0.0,62,0.00,,,0.00,0,WeatherCatV1.23B16,2013-11-15 00:12:00,
2013-11-14 18:14:00,48.3,36.3,29.89,NW,318,0.0,0.0,63,0.00,,,0.00,0,WeatherCatV1.23B16,2013-11-15 00:14:00,
2013-11-14 18:15:00,48.2,36.2,29.89,NW,319,0.0,0.0,63,0.00,,,0.00,0,WeatherCatV1.23B16,2013-11-15 00:15:00,
2013-11-14 18:16:00,48.2,36.2,29.89,NW,318,0.0,0.0,63,0.00,,,0.00,0,WeatherCatV1.23B16,2013-11-15 00:16:00,
2013-11-14 18:17:00,48.1,36.1,29.89,NW,319,0.0,0.0,63,0.00,,,0.00,0,WeatherCatV1.23B16,2013-11-15 00:17:00,
2013-11-14 18:19:00,48.0,36.0,29.89,NW,319,0.0,0.0,63,0.00,,,0.00,0,WeatherCatV1.23B16,2013-11-15 00:19:00,
2013-11-14 18:20:00,47.9,36.3,29.89,NW,319,0.0,0.0,64,0.00,,,0.00,0,WeatherCatV1.23B16,2013-11-15 00:20:00,
2013-11-14 18:21:00,47.9,36.3,29.89,NW,318,0.0,0.0,64,0.00,,,0.00,0,WeatherCatV1.23B16,2013-11-15 00:21:00,
2013-11-14 18:22:00,47.9,36.3,29.89,NW,319,0.0,0.0,64,0.00,,,0.00,0,WeatherCatV1.23B16,2013-11-15 00:22:00,
2013-11-14 18:24:00,47.7,36.1,29.89,NW,319,0.0,0.0,64,0.00,,,0.00,0,WeatherCatV1.23B16,2013-11-15 00:24:00,
2013-11-14 18:26:00,47.6,36.0,29.89,NW,318,0.0,0.0,64,0.00,,,0.00,0,WeatherCatV1.23B16,2013-11-15 00:26:00,
2013-11-14 18:27:00,47.4,35.8,29.89,NW,319,0.0,0.0,64,0.00,,,0.00,0,WeatherCatV1.23B16,2013-11-15 00:27:00,
2013-11-14 18:28:00,47.3,36.1,29.90,NW,319,0.0,0.0,65,0.00,,,0.00,0,WeatherCatV1.23B16,2013-11-15 00:28:00,
2013-11-14 18:29:00,47.0,35.8,29.90,NW,318,0.0,0.0,65,0.00,,,0.00,0,WeatherCatV1.23B16,2013-11-15 00:29:00,
2013-11-14 18:31:00,46.8,36.0,29.90,NW,319,0.0,0.0,66,0.00,,,0.00,0,WeatherCatV1.23B16,2013-11-15 00:31:00,
2013-11-14 18:32:00,46.7,36.0,29.90,NW,318,0.0,0.0,66,0.00,,,0.00,0,WeatherCatV1.23B16,2013-11-15 00:32:00,
2013-11-14 18:33:00,46.7,36.0,29.90,NW,319,0.0,0.0,66,0.00,,,0.00,0,WeatherCatV1.23B16,2013-11-15 00:33:00,
2013-11-14 18:35:00,46.4,35.7,29.90,NW,319,0.0,0.0,66,0.00,,,0.00,0,WeatherCatV1.23B16,2013-11-15 00:35:00,
2013-11-14 18:36:00,46.3,35.6,29.90,NW,318,0.0,0.0,66,0.00,,,0.00,0,WeatherCatV1.23B16,2013-11-15 00:36:00,
2013-11-14 18:37:00,46.2,35.5,29.90,NW,319,0.0,0.0,66,0.00,,,0.00,0,WeatherCatV1.23B16,2013-11-15 00:37:00,
2013-11-14 18:38:00,46.1,35.8,29.90,NW,318,0.0,0.0,67,0.00,,,0.00,0,WeatherCatV1.23B16,2013-11-15 00:38:00,
2013-11-14 18:40:00,45.9,35.6,29.90,NW,319,0.0,0.0,67,0.00,,,0.00,0,WeatherCatV1.23B16,2013-11-15 00:40:00,
2013-11-14 18:41:00,45.8,35.8,29.90,NW,319,0.0,0.0,68,0.00,,,0.00,0,WeatherCatV1.23B16,2013-11-15 00:41:00,
2013-11-14 18:42:00,45.8,35.8,29.90,NW,319,0.0,0.0,68,0.00,,,0.00,0,WeatherCatV1.23B16,2013-11-15 00:42:00,
2013-11-14 18:43:00,45.7,35.8,29.90,NW,319,0.0,0.0,68,0.00,,,0.00,0,WeatherCatV1.23B16,2013-11-15 00:43:00,
2013-11-14 18:45:00,45.6,35.7,29.90,NW,319,0.0,0.0,68,0.00,,,0.00,0,WeatherCatV1.23B16,2013-11-15 00:45:00,
2013-11-14 18:46:00,45.6,36.0,29.90,NW,319,0.0,0.0,69,0.00,,,0.00,0,WeatherCatV1.23B16,2013-11-15 00:46:00,
2013-11-14 18:47:00,45.6,36.0,29.90,NW,318,0.0,0.0,69,0.00,,,0.00,0,WeatherCatV1.23B16,2013-11-15 00:47:00,
2013-11-14 18:48:00,45.5,35.9,29.90,NW,319,0.0,0.0,69,0.00,,,0.00,0,WeatherCatV1.23B16,2013-11-15 00:48:00,
2013-11-14 18:50:00,45.5,36.3,29.90,NW,318,0.0,0.0,70,0.00,,,0.00,0,WeatherCatV1.23B16,2013-11-15 00:50:00,
2013-11-14 18:51:00,45.5,36.3,29.90,NW,319,0.0,0.0,70,0.00,,,0.00,0,WeatherCatV1.23B16,2013-11-15 00:51:00,
2013-11-14 18:52:00,45.5,36.3,29.89,NW,318,0.0,0.0,70,0.00,,,0.00,0,WeatherCatV1.23B16,2013-11-15 00:52:00,
2013-11-14 18:53:00,45.5,36.3,29.90,NW,319,0.0,0.0,70,0.00,,,0.00,0,WeatherCatV1.23B16,2013-11-15 00:53:00,
2013-11-14 18:55:00,45.4,36.2,29.90,NW,318,0.0,0.0,70,0.00,,,0.00,0,WeatherCatV1.23B16,2013-11-15 00:55:00,
2013-11-14 18:57:00,45.4,36.2,29.90,NW,319,0.0,0.0,70,0.00,,,0.00,0,WeatherCatV1.23B16,2013-11-15 00:57:00,
2013-11-14 18:58:00,45.3,36.1,29.90,NW,318,0.0,0.0,70,0.00,,,0.00,0,WeatherCatV1.23B16,2013-11-15 00:58:00,
2013-11-14 18:59:00,45.3,36.1,29.90,NW,319,0.0,0.0,70,0.00,,,0.00,0,WeatherCatV1.23B16,2013-11-15 00:59:00,
2013-11-14 19:00:00,45.2,36.0,29.89,NW,318,0.0,0.0,70,0.00,,,0.00,0,WeatherCatV1.23B16,2013-11-15 01:00:00,
2013-11-14 19:02:00,45.1,35.9,29.89,NW,319,0.0,0.0,70,0.00,,,0.00,0,WeatherCatV1.23B16,2013-11-15 01:02:00,
2013-11-14 19:04:00,45.0,35.8,29.90,NW,319,0.0,0.0,70,0.00,,,0.00,0,WeatherCatV1.23B16,2013-11-15 01:04:00,
2013-11-14 19:05:00,45.0,35.8,29.89,NW,319,0.0,0.0,70,0.00,,,0.00,0,WeatherCatV1.23B16,2013-11-15 01:05:00,
2013-11-14 19:07:00,44.9,35.7,29.89,NW,318,0.0,0.0,70,0.00,,,0.00,0,WeatherCatV1.23B16,2013-11-15 01:07:00,
2013-11-14 19:09:00,44.9,36.1,29.90,NW,318,0.0,0.0,71,0.00,,,0.00,0,WeatherCatV1.23B16,2013-11-15 01:09:00,
2013-11-14 19:10:00,44.8,36.0,29.90,NW,319,0.0,0.0,71,0.00,,,0.00,0,WeatherCatV1.23B16,2013-11-15 01:10:00,
2013-11-14 19:12:00,44.7,35.9,29.89,NW,319,0.0,0.0,71,0.00,,,0.00,0,WeatherCatV1.23B16,2013-11-15 01:12:00,
2013-11-14 19:13:00,44.7,35.9,29.89,NW,319,0.0,0.0,71,0.00,,,0.00,0,WeatherCatV1.23B16,2013-11-15 01:13:00,
2013-11-14 19:14:00,44.7,35.9,29.89,NW,319,0.0,0.0,71,0.00,,,0.00,0,WeatherCatV1.23B16,2013-11-15 01:14:00,
2013-11-14 19:15:00,44.6,36.1,29.89,NW,319,0.0,0.0,72,0.00,,,0.00,0,WeatherCatV1.23B16,2013-11-15 01:15:00,
2013-11-14 19:16:00,44.5,36.0,29.90,NW,318,0.0,0.0,72,0.00,,,0.00,0,WeatherCatV1.23B16,2013-11-15 01:16:00,
2013-11-14 19:17:00,44.5,36.0,29.89,NW,319,0.0,0.0,72,0.00,,,0.00,0,WeatherCatV1.23B16,2013-11-15 01:17:00,
2013-11-14 19:18:00,44.4,36.0,29.89,NW,319,0.0,0.0,72,0.00,,,0.00,0,WeatherCatV1.23B16,2013-11-15 01:18:00,
2013-11-14 19:19:00,44.4,36.0,29.89,NW,318,0.0,0.0,72,0.00,,,0.00,0,WeatherCatV1.23B16,2013-11-15 01:19:00,
2013-11-14 19:20:00,44.4,36.0,29.89,NW,319,0.0,0.0,72,0.00,,,0.00,0,WeatherCatV1.23B16,2013-11-15 01:20:00,
2013-11-14 19:21:00,44.4,36.0,29.89,NW,318,0.0,0.0,72,0.00,,,0.00,0,WeatherCatV1.23B16,2013-11-15 01:21:00,
2013-11-14 19:22:00,44.4,36.0,29.89,NW,318,0.0,0.0,72,0.00,,,0.00,0,WeatherCatV1.23B16,2013-11-15 01:22:00,
2013-11-14 19:23:00,44.3,35.8,29.89,NW,318,0.0,0.0,72,0.00,,,0.00,0,WeatherCatV1.23B16,2013-11-15 01:23:00,
2013-11-14 19:24:00,44.2,35.8,29.89,NW,319,0.0,0.0,72,0.00,,,0.00,0,WeatherCatV1.23B16,2013-11-15 01:24:00,
2013-11-14 19:26:00,43.9,35.5,29.89,NW,319,0.0,0.0,72,0.00,,,0.00,0,WeatherCatV1.23B16,2013-11-15 01:26:00,
2013-11-14 19:27:00,43.7,35.3,29.89,NW,319,0.0,0.0,72,0.00,,,0.00,0,WeatherCatV1.23B16,2013-11-15 01:27:00,
2013-11-14 19:28:00,43.6,35.2,29.89,NW,319,0.0,2.0,72,0.00,,,0.00,0,WeatherCatV1.23B16,2013-11-15 01:28:00,
2013-11-14 19:29:00,43.5,35.4,29.89,NW,319,0.0,2.0,73,0.00,,,0.00,0,WeatherCatV1.23B16,2013-11-15 01:29:00,
2013-11-14 19:31:00,43.4,35.3,29.89,NW,319,0.0,0.0,73,0.00,,,0.00,0,WeatherCatV1.23B16,2013-11-15 01:31:00,
2013-11-14 19:32:00,43.3,35.2,29.89,NW,319,0.0,0.0,73,0.00,,,0.00,0,WeatherCatV1.23B16,2013-11-15 01:32:00,
2013-11-14 19:33:00,43.2,35.5,29.89,NW,318,0.0,0.0,74,0.00,,,0.00,0,WeatherCatV1.23B16,2013-11-15 01:33:00,
2013-11-14 19:34:00,43.2,35.5,29.89,NW,319,0.0,0.0,74,0.00,,,0.00,0,WeatherCatV1.23B16,2013-11-15 01:34:00,
2013-11-14 19:36:00,43.3,35.6,29.89,NW,318,0.0,0.0,74,0.00,,,0.00,0,WeatherCatV1.23B16,2013-11-15 01:36:00,
2013-11-14 19:37:00,43.3,35.9,29.89,NW,318,0.0,0.0,75,0.00,,,0.00,0,WeatherCatV1.23B16,2013-11-15 01:37:00,
2013-11-14 19:38:00,43.3,35.9,29.89,NW,319,0.0,0.0,75,0.00,,,0.00,0,WeatherCatV1.23B16,2013-11-15 01:38:00,
2013-11-14 19:39:00,43.4,36.0,29.89,NW,319,0.0,1.0,75,0.00,,,0.00,0,WeatherCatV1.23B16,2013-11-15 01:39:00,
2013-11-14 19:42:00,43.4,36.0,29.89,NW,319,0.0,0.0,75,0.00,,,0.00,0,WeatherCatV1.23B16,2013-11-15 01:42:00,
2013-11-14 19:43:00,43.5,36.1,29.89,NW,319,0.0,0.0,75,0.00,,,0.00,0,WeatherCatV1.23B16,2013-11-15 01:43:00,
2013-11-14 19:44:00,43.5,36.1,29.90,NW,319,0.0,0.0,75,0.00,,,0.00,0,WeatherCatV1.23B16,2013-11-15 01:44:00,
2013-11-14 19:47:00,43.7,36.3,29.90,NW,319,0.0,1.0,75,0.00,,,0.00,0,WeatherCatV1.23B16,2013-11-15 01:47:00,
2013-11-14 19:48:00,43.7,36.3,29.90,NW,319,0.0,1.0,75,0.00,,,0.00,0,WeatherCatV1.23B16,2013-11-15 01:48:00,
2013-11-14 19:49:00,43.7,36.3,29.90,NW,319,0.0,0.0,75,0.00,,,0.00,0,WeatherCatV1.23B16,2013-11-15 01:49:00,
2013-11-14 19:50:00,43.7,36.3,29.89,NW,319,0.0,0.0,75,0.00,,,0.00,0,WeatherCatV1.23B16,2013-11-15 01:50:00,
2013-11-14 19:52:00,43.6,36.2,29.90,NW,319,0.0,0.0,75,0.00,,,0.00,0,WeatherCatV1.23B16,2013-11-15 01:52:00,
2013-11-14 19:53:00,43.6,36.2,29.90,NW,319,0.0,0.0,75,0.00,,,0.00,0,WeatherCatV1.23B16,2013-11-15 01:53:00,
2013-11-14 19:54:00,43.6,36.2,29.90,NW,319,0.0,1.0,75,0.00,,,0.00,0,WeatherCatV1.23B16,2013-11-15 01:54:00,
2013-11-14 19:55:00,43.5,36.1,29.90,NW,319,0.0,0.0,75,0.00,,,0.00,0,WeatherCatV1.23B16,2013-11-15 01:55:00,
2013-11-14 19:58:00,43.4,36.3,29.90,NW,319,0.0,0.0,76,0.00,,,0.00,0,WeatherCatV1.23B16,2013-11-15 01:58:00,
2013-11-14 19:59:00,43.3,36.2,29.90,NW,318,0.0,0.0,76,0.00,,,0.00,0,WeatherCatV1.23B16,2013-11-15 01:59:00,
2013-11-14 20:00:00,43.3,36.2,29.90,NW,319,0.0,1.0,76,0.00,,,0.00,0,WeatherCatV1.23B16,2013-11-15 02:00:00,
2013-11-14 20:03:00,43.3,36.2,29.90,NW,319,0.0,0.0,76,0.00,,,0.00,0,WeatherCatV1.23B16,2013-11-15 02:03:00,
2013-11-14 20:04:00,43.2,36.2,29.90,NW,319,0.0,0.0,76,0.00,,,0.00,0,WeatherCatV1.23B16,2013-11-15 02:04:00,
2013-11-14 20:05:00,43.2,36.2,29.90,NW,319,0.0,0.0,76,0.00,,,0.00,0,WeatherCatV1.23B16,2013-11-15 02:05:00,
2013-11-14 20:06:00,43.1,36.1,29.90,NW,318,0.0,0.0,76,0.00,,,0.00,0,WeatherCatV1.23B16,2013-11-15 02:06:00,
2013-11-14 20:08:00,43.0,36.0,29.90,NW,319,0.0,0.0,76,0.00,,,0.00,0,WeatherCatV1.23B16,2013-11-15 02:08:00,
2013-11-14 20:09:00,43.0,36.0,29.90,NW,319,0.0,0.0,76,0.00,,,0.00,0,WeatherCatV1.23B16,2013-11-15 02:09:00,
2013-11-14 20:10:00,43.0,36.0,29.90,NW,319,0.0,0.0,76,0.00,,,0.00,0,WeatherCatV1.23B16,2013-11-15 02:10:00,
2013-11-14 20:11:00,42.9,35.9,29.90,NW,318,0.0,0.0,76,0.00,,,0.00,0,WeatherCatV1.23B16,2013-11-15 02:11:00,
2013-11-14 20:13:00,42.7,35.7,29.90,NW,319,0.0,0.0,76,0.00,,,0.00,0,WeatherCatV1.23B16,2013-11-15 02:13:00,
2013-11-14 20:15:00,42.6,35.6,29.90,NW,319,0.0,0.0,76,0.00,,,0.00,0,WeatherCatV1.23B16,2013-11-15 02:15:00,
2013-11-14 20:16:00,42.5,35.5,29.90,NW,318,0.0,0.0,76,0.00,,,0.00,0,WeatherCatV1.23B16,2013-11-15 02:16:00,
2013-11-14 20:18:00,42.3,35.6,29.90,NW,319,0.0,0.0,77,0.00,,,0.00,0,WeatherCatV1.23B16,2013-11-15 02:18:00,
2013-11-14 20:20:00,42.3,35.6,29.90,NW,319,0.0,0.0,77,0.00,,,0.00,0,WeatherCatV1.23B16,2013-11-15 02:20:00,
2013-11-14 20:21:00,42.2,35.5,29.90,NW,318,0.0,0.0,77,0.00,,,0.00,0,WeatherCatV1.23B16,2013-11-15 02:21:00,
2013-11-14 20:24:00,42.0,35.7,29.90,NW,318,0.0,0.0,78,0.00,,,0.00,0,WeatherCatV1.23B16,2013-11-15 02:24:00,
2013-11-14 20:25:00,42.0,35.7,29.90,NW,318,0.0,0.0,78,0.00,,,0.00,0,WeatherCatV1.23B16,2013-11-15 02:25:00,
2013-11-14 20:26:00,41.9,35.5,29.90,NW,319,0.0,0.0,78,0.00,,,0.00,0,WeatherCatV1.23B16,2013-11-15 02:26:00,
2013-11-14 20:29:00,41.8,35.5,29.90,NW,319,0.0,0.0,78,0.00,,,0.00,0,WeatherCatV1.23B16,2013-11-15 02:29:00,
2013-11-14 20:30:00,41.7,35.4,29.90,NW,319,0.0,0.0,78,0.00,,,0.00,0,WeatherCatV1.23B16,2013-11-15 02:30:00,
2013-11-14 20:31:00,41.6,35.6,29.90,NW,319,0.0,0.0,79,0.00,,,0.00,0,WeatherCatV1.23B16,2013-11-15 02:31:00,
2013-11-14 20:34:00,41.4,35.1,29.90,NW,319,0.0,0.0,78,0.00,,,0.00,0,WeatherCatV1.23B16,2013-11-15 02:34:00,
2013-11-14 20:35:00,41.4,35.4,29.90,NW,319,0.0,0.0,79,0.00,,,0.00,0,WeatherCatV1.23B16,2013-11-15 02:35:00,
2013-11-14 20:36:00,41.4,35.4,29.90,NW,318,0.0,0.0,79,0.00,,,0.00,0,WeatherCatV1.23B16,2013-11-15 02:36:00,
2013-11-14 20:39:00,41.3,35.3,29.90,NW,318,0.0,0.0,79,0.00,,,0.00,0,WeatherCatV1.23B16,2013-11-15 02:39:00,
2013-11-14 20:40:00,41.3,35.3,29.90,NW,319,0.0,0.0,79,0.00,,,0.00,0,WeatherCatV1.23B16,2013-11-15 02:40:00,
2013-11-14 20:41:00,41.3,35.3,29.90,NW,319,0.0,0.0,79,0.00,,,0.00,0,WeatherCatV1.23B16,2013-11-15 02:41:00,
2013-11-14 20:44:00,41.2,35.2,29.90,NW,318,0.0,0.0,79,0.00,,,0.00,0,WeatherCatV1.23B16,2013-11-15 02:44:00,
2013-11-14 20:45:00,41.1,35.1,29.90,NW,318,0.0,0.0,79,0.00,,,0.00,0,WeatherCatV1.23B16,2013-11-15 02:45:00,
2013-11-14 20:46:00,41.1,35.1,29.90,NW,319,0.0,0.0,79,0.00,,,0.00,0,WeatherCatV1.23B16,2013-11-15 02:46:00,
2013-11-14 20:47:00,41.1,35.4,29.90,NW,319,0.0,0.0,80,0.00,,,0.00,0,WeatherCatV1.23B16,2013-11-15 02:47:00,
2013-11-14 20:49:00,40.9,35.2,29.90,NW,318,0.0,0.0,80,0.00,,,0.00,0,WeatherCatV1.23B16,2013-11-15 02:49:00,
2013-11-14 20:51:00,40.9,35.2,29.90,NW,319,0.0,0.0,80,0.00,,,0.00,0,WeatherCatV1.23B16,2013-11-15 02:51:00,
2013-11-14 20:52:00,40.8,35.1,29.90,NW,319,0.0,2.0,80,0.00,,,0.00,0,WeatherCatV1.23B16,2013-11-15 02:52:00,
2013-11-14 20:55:00,40.8,35.1,29.90,NW,319,0.0,0.0,80,0.00,,,0.00,0,WeatherCatV1.23B16,2013-11-15 02:55:00,
2013-11-14 20:56:00,40.8,35.1,29.90,NW,318,0.0,0.0,80,0.00,,,0.00,0,WeatherCatV1.23B16,2013-11-15 02:56:00,
2013-11-14 20:57:00,40.7,35.0,29.90,NW,319,0.0,0.0,80,0.00,,,0.00,0,WeatherCatV1.23B16,2013-11-15 02:57:00,
2013-11-14 21:00:00,40.6,35.2,29.90,NW,319,0.0,0.0,81,0.00,,,0.00,0,WeatherCatV1.23B16,2013-11-15 03:00:00,
2013-11-14 21:01:00,40.6,35.2,29.90,NW,319,0.0,0.0,81,0.00,,,0.00,0,WeatherCatV1.23B16,2013-11-15 03:01:00,
2013-11-14 21:02:00,40.6,35.2,29.90,NW,319,0.0,0.0,81,0.00,,,0.00,0,WeatherCatV1.23B16,2013-11-15 03:02:00,
2013-11-14 21:05:00,40.6,35.2,29.90,NW,319,0.0,0.0,81,0.00,,,0.00,0,WeatherCatV1.23B16,2013-11-15 03:05:00,
2013-11-14 21:06:00,40.6,35.2,29.90,NW,319,1.0,1.0,81,0.00,,,0.00,0,WeatherCatV1.23B16,2013-11-15 03:06:00,
2013-11-14 21:07:00,40.6,35.2,29.90,NW,319,0.0,1.0,81,0.00,,,0.00,0,WeatherCatV1.23B16,2013-11-15 03:07:00,
2013-11-14 21:08:00,40.6,35.2,29.90,NW,319,0.0,1.0,81,0.00,,,0.00,0,WeatherCatV1.23B16,2013-11-15 03:08:00,
2013-11-14 21:11:00,40.6,35.2,29.90,NW,318,0.0,0.0,81,0.00,,,0.00,0,WeatherCatV1.23B16,2013-11-15 03:11:00,
2013-11-14 21:12:00,40.6,35.2,29.90,NW,319,0.0,0.0,81,0.00,,,0.00,0,WeatherCatV1.23B16,2013-11-15 03:12:00,
2013-11-14 21:13:00,40.6,35.2,29.90,NW,318,0.0,0.0,81,0.00,,,0.00,0,WeatherCatV1.23B16,2013-11-15 03:13:00,
2013-11-14 21:14:00,40.5,35.1,29.90,NW,319,1.0,1.0,81,0.00,,,0.00,0,WeatherCatV1.23B16,2013-11-15 03:14:00,
2013-11-14 21:16:00,40.5,35.1,29.90,NW,319,0.0,2.0,81,0.00,,,0.00,0,WeatherCatV1.23B16,2013-11-15 03:16:00,
2013-11-14 21:17:00,40.6,35.2,29.90,NW,319,0.0,1.0,81,0.00,,,0.00,0,WeatherCatV1.23B16,2013-11-15 03:17:00,
2013-11-14 21:18:00,40.5,35.1,29.90,NW,319,0.0,0.0,81,0.00,,,0.00,0,WeatherCatV1.23B16,2013-11-15 03:18:00,
2013-11-14 21:19:00,40.5,35.1,29.90,NW,319,0.0,1.0,81,0.00,,,0.00,0,WeatherCatV1.23B16,2013-11-15 03:19:00,
2013-11-14 21:21:00,40.5,35.1,29.90,NW,319,0.0,1.0,81,0.00,,,0.00,0,WeatherCatV1.23B16,2013-11-15 03:21:00,
2013-11-14 21:22:00,40.5,35.5,29.90,NW,319,0.0,1.0,82,0.00,,,0.00,0,WeatherCatV1.23B16,2013-11-15 03:22:00,
2013-11-14 21:23:00,40.5,35.5,29.90,NW,319,0.0,1.0,82,0.00,,,0.00,0,WeatherCatV1.23B16,2013-11-15 03:23:00,
2013-11-14 21:25:00,40.5,35.5,29.90,NW,318,0.0,0.0,82,0.00,,,0.00,0,WeatherCatV1.23B16,2013-11-15 03:25:00,
2013-11-14 21:26:00,40.5,35.5,29.90,NW,319,0.0,0.0,82,0.00,,,0.00,0,WeatherCatV1.23B16,2013-11-15 03:26:00,
2013-11-14 21:27:00,40.5,35.5,29.90,NW,318,0.0,0.0,82,0.00,,,0.00,0,WeatherCatV1.23B16,2013-11-15 03:27:00,
2013-11-14 21:29:00,40.6,35.5,29.90,NW,319,0.0,0.0,82,0.00,,,0.00,0,WeatherCatV1.23B16,2013-11-15 03:29:00,
2013-11-14 21:30:00,40.5,35.5,29.90,NW,319,0.0,0.0,82,0.00,,,0.00,0,WeatherCatV1.23B16,2013-11-15 03:30:00,
2013-11-14 21:31:00,40.5,35.5,29.90,NW,319,0.0,0.0,82,0.00,,,0.00,0,WeatherCatV1.23B16,2013-11-15 03:31:00,
2013-11-14 21:32:00,40.5,35.5,29.90,NW,319,0.0,0.0,82,0.00,,,0.00,0,WeatherCatV1.23B16,2013-11-15 03:32:00,
2013-11-14 21:33:00,40.4,35.3,29.90,NW,319,1.0,1.0,82,0.00,,,0.00,0,WeatherCatV1.23B16,2013-11-15 03:33:00,
2013-11-14 21:34:00,40.4,35.3,29.90,NW,319,0.0,2.0,82,0.00,,,0.00,0,WeatherCatV1.23B16,2013-11-15 03:34:00,
2013-11-14 21:35:00,40.4,35.3,29.90,NW,318,0.0,2.0,82,0.00,,,0.00,0,WeatherCatV1.23B16,2013-11-15 03:35:00,
2013-11-14 21:36:00,40.4,35.3,29.90,NW,318,0.0,0.0,82,0.00,,,0.00,0,WeatherCatV1.23B16,2013-11-15 03:36:00,
2013-11-14 21:37:00,40.3,35.2,29.90,NW,319,0.0,0.0,82,0.00,,,0.00,0,WeatherCatV1.23B16,2013-11-15 03:37:00,
2013-11-14 21:38:00,40.3,35.2,29.90,NW,319,0.0,0.0,82,0.00,,,0.00,0,WeatherCatV1.23B16,2013-11-15 03:38:00,
2013-11-14 21:39:00,40.3,35.2,29.90,NW,319,0.0,0.0,82,0.00,,,0.00,0,WeatherCatV1.23B16,2013-11-15 03:39:00,
2013-11-14 21:40:00,40.2,35.2,29.90,NW,319,0.0,0.0,82,0.00,,,0.00,0,WeatherCatV1.23B16,2013-11-15 03:40:00,
2013-11-14 21:41:00,40.2,35.2,29.90,NW,319,0.0,0.0,82,0.00,,,0.00,0,WeatherCatV1.23B16,2013-11-15 03:41:00,
2013-11-14 21:42:00,40.1,35.0,29.90,NW,318,0.0,0.0,82,0.00,,,0.00,0,WeatherCatV1.23B16,2013-11-15 03:42:00,
2013-11-14 21:43:00,40.1,35.0,29.90,NW,318,0.0,0.0,82,0.00,,,0.00,0,WeatherCatV1.23B16,2013-11-15 03:43:00,
2013-11-14 21:44:00,40.0,35.0,29.90,NW,318,0.0,0.0,82,0.00,,,0.00,0,WeatherCatV1.23B16,2013-11-15 03:44:00,
2013-11-14 21:45:00,40.0,35.0,29.90,NW,319,0.0,0.0,82,0.00,,,0.00,0,WeatherCatV1.23B16,2013-11-15 03:45:00,
2013-11-14 21:46:00,40.0,35.0,29.90,NW,319,0.0,0.0,82,0.00,,,0.00,0,WeatherCatV1.23B16,2013-11-15 03:46:00,
2013-11-14 21:47:00,39.9,34.9,29.90,NW,319,0.0,0.0,82,0.00,,,0.00,0,WeatherCatV1.23B16,2013-11-15 03:47:00,
2013-11-14 21:48:00,39.9,34.9,29.90,NW,319,0.0,0.0,82,0.00,,,0.00,0,WeatherCatV1.23B16,2013-11-15 03:48:00,
2013-11-14 21:49:00,39.9,34.9,29.90,NW,318,0.0,0.0,82,0.00,,,0.00,0,WeatherCatV1.23B16,2013-11-15 03:49:00,
2013-11-14 21:50:00,39.9,34.9,29.90,NW,319,0.0,0.0,82,0.00,,,0.00,0,WeatherCatV1.23B16,2013-11-15 03:50:00,
2013-11-14 21:51:00,39.9,34.9,29.90,NW,318,0.0,0.0,82,0.00,,,0.00,0,WeatherCatV1.23B16,2013-11-15 03:51:00,
2013-11-14 21:52:00,39.9,34.9,29.90,NW,319,0.0,0.0,82,0.00,,,0.00,0,WeatherCatV1.23B16,2013-11-15 03:52:00,
2013-11-14 21:53:00,39.9,34.9,29.90,NW,319,0.0,0.0,82,0.00,,,0.00,0,WeatherCatV1.23B16,2013-11-15 03:53:00,
2013-11-14 21:54:00,40.0,35.0,29.90,NW,318,0.0,0.0,82,0.00,,,0.00,0,WeatherCatV1.23B16,2013-11-15 03:54:00,
2013-11-14 21:56:00,40.0,35.0,29.90,NW,319,0.0,0.0,82,0.00,,,0.00,0,WeatherCatV1.23B16,2013-11-15 03:56:00,
2013-11-14 21:57:00,40.1,35.4,29.90,NW,319,0.0,0.0,83,0.00,,,0.00,0,WeatherCatV1.23B16,2013-11-15 03:57:00,
2013-11-14 21:58:00,40.2,35.5,29.90,NW,318,0.0,0.0,83,0.00,,,0.00,0,WeatherCatV1.23B16,2013-11-15 03:58:00,
2013-11-14 22:00:00,40.3,35.5,29.90,NW,319,0.0,0.0,83,0.00,,,0.00,0,WeatherCatV1.23B16,2013-11-15 04:00:00,
2013-11-14 22:02:00,40.4,35.7,29.90,NW,319,0.0,3.0,83,0.00,,,0.00,0,WeatherCatV1.23B16,2013-11-15 04:02:00,
2013-11-14 22:03:00,40.5,35.5,29.90,NW,318,0.0,3.0,82,0.00,,,0.00,0,WeatherCatV1.23B16,2013-11-15 04:03:00,
2013-11-14 22:05:00,40.6,35.5,29.90,NW,319,0.0,3.0,82,0.00,,,0.00,0,WeatherCatV1.23B16,2013-11-15 04:05:00,
2013-11-14 22:07:00,40.7,35.6,29.90,NW,319,1.0,4.0,82,0.00,,,0.00,0,WeatherCatV1.23B16,2013-11-15 04:07:00,
2013-11-14 22:08:00,40.7,35.6,29.90,NW,318,0.0,4.0,82,0.00,,,0.00,0,WeatherCatV1.23B16,2013-11-15 04:08:00,
2013-11-14 22:10:00,40.7,35.6,29.90,NW,318,2.0,2.0,82,0.00,,,0.00,0,WeatherCatV1.23B16,2013-11-15 04:10:00,
2013-11-14 22:12:00,40.6,35.5,29.90,NW,319,1.0,1.0,82,0.00,,,0.00,0,WeatherCatV1.23B16,2013-11-15 04:12:00,
2013-11-14 22:13:00,40.7,35.6,29.90,NW,319,2.0,2.0,82,0.00,,,0.00,0,WeatherCatV1.23B16,2013-11-15 04:13:00,
2013-11-14 22:15:00,40.6,35.5,29.90,NW,319,0.0,2.0,82,0.00,,,0.00,0,WeatherCatV1.23B16,2013-11-15 04:15:00,
2013-11-14 22:17:00,40.6,35.5,29.90,NW,318,0.0,3.0,82,0.00,,,0.00,0,WeatherCatV1.23B16,2013-11-15 04:17:00,
2013-11-14 22:18:00,40.6,35.5,29.90,NW,319,1.0,3.0,82,0.00,,,0.00,0,WeatherCatV1.23B16,2013-11-15 04:18:00,
2013-11-14 22:20:00,40.6,35.5,29.90,NW,319,0.0,3.0,82,0.00,,,0.00,0,WeatherCatV1.23B16,2013-11-15 04:20:00,
2013-11-14 22:22:00,40.5,35.5,29.89,NW,319,2.0,2.0,82,0.00,,,0.00,0,WeatherCatV1.23B16,2013-11-15 04:22:00,
2013-11-14 22:23:00,40.5,35.5,29.89,NW,318,3.0,3.0,82,0.00,,,0.00,0,WeatherCatV1.23B16,2013-11-15 04:23:00,
2013-11-14 22:24:00,40.5,35.5,29.89,NW,319,0.0,4.0,82,0.00,,,0.00,0,WeatherCatV1.23B16,2013-11-15 04:24:00,
2013-11-14 22:26:00,40.5,35.5,29.89,NW,319,0.0,1.0,82,0.00,,,0.00,0,WeatherCatV1.23B16,2013-11-15 04:26:00,
2013-11-14 22:28:00,40.4,35.3,29.89,NW,319,0.0,2.0,82,0.00,,,0.00,0,WeatherCatV1.23B16,2013-11-15 04:28:00,
2013-11-14 22:29:00,40.4,35.3,29.89,NW,319,1.0,2.0,82,0.00,,,0.00,0,WeatherCatV1.23B16,2013-11-15 04:29:00,
2013-11-14 22:31:00,40.4,35.3,29.89,NW,319,0.0,2.0,82,0.00,,,0.00,0,WeatherCatV1.23B16,2013-11-15 04:31:00,
2013-11-14 22:33:00,40.4,35.3,29.89,NW,319,0.0,2.0,82,0.00,,,0.00,0,WeatherCatV1.23B16,2013-11-15 04:33:00,
2013-11-14 22:34:00,40.4,35.3,29.89,NW,319,0.0,3.0,82,0.00,,,0.00,0,WeatherCatV1.23B16,2013-11-15 04:34:00,
2013-11-14 22:37:00,40.3,35.2,29.89,NW,319,0.0,0.0,82,0.00,,,0.00,0,WeatherCatV1.23B16,2013-11-15 04:37:00,
2013-11-14 22:38:00,40.2,35.2,29.89,NW,319,0.0,1.0,82,0.00,,,0.00,0,WeatherCatV1.23B16,2013-11-15 04:38:00,
2013-11-14 22:39:00,40.2,35.2,29.89,NW,318,0.0,1.0,82,0.00,,,0.00,0,WeatherCatV1.23B16,2013-11-15 04:39:00,
2013-11-14 22:43:00,40.1,35.0,29.89,NW,319,0.0,0.0,82,0.00,,,0.00,0,WeatherCatV1.23B16,2013-11-15 04:43:00,
2013-11-14 22:44:00,40.0,35.0,29.89,NW,318,0.0,0.0,82,0.00,,,0.00,0,WeatherCatV1.23B16,2013-11-15 04:44:00,
2013-11-14 22:48:00,39.8,34.8,29.89,NW,319,0.0,0.0,82,0.00,,,0.00,0,WeatherCatV1.23B16,2013-11-15 04:48:00,
2013-11-14 22:49:00,39.7,34.7,29.89,NW,319,0.0,0.0,82,0.00,,,0.00,0,WeatherCatV1.23B16,2013-11-15 04:49:00,
2013-11-14 22:53:00,39.4,34.4,29.89,NW,319,0.0,0.0,82,0.00,,,0.00,0,WeatherCatV1.23B16,2013-11-15 04:53:00,
2013-11-14 22:54:00,39.3,34.3,29.89,NW,318,0.0,0.0,82,0.00,,,0.00,0,WeatherCatV1.23B16,2013-11-15 04:54:00,
2013-11-14 22:55:00,39.2,34.2,29.89,NW,318,0.0,0.0,82,0.00,,,0.00,0,WeatherCatV1.23B16,2013-11-15 04:55:00,
2013-11-14 22:58:00,38.9,33.9,29.89,NW,319,0.0,0.0,82,0.00,,,0.00,0,WeatherCatV1.23B16,2013-11-15 04:58:00,
2013-11-14 22:59:00,38.8,33.8,29.90,NW,319,0.0,0.0,82,0.00,,,0.00,0,WeatherCatV1.23B16,2013-11-15 04:59:00,
2013-11-14 23:00:00,38.8,34.1,29.90,NW,319,0.0,0.0,83,0.00,,,0.00,0,WeatherCatV1.23B16,2013-11-15 05:00:00,
2013-11-14 23:01:00,38.7,34.0,29.89,NW,319,0.0,0.0,83,0.00,,,0.00,0,WeatherCatV1.23B16,2013-11-15 05:01:00,
2013-11-14 23:06:00,38.3,33.6,29.89,NW,319,0.0,0.0,83,0.00,,,0.00,0,WeatherCatV1.23B16,2013-11-15 05:06:00,
2013-11-14 23:11:00,38.0,33.6,29.89,NW,318,0.0,0.0,84,0.00,,,0.00,0,WeatherCatV1.23B16,2013-11-15 05:11:00,
2013-11-14 23:12:00,38.0,33.6,29.89,NW,318,0.0,1.0,84,0.00,,,0.00,0,WeatherCatV1.23B16,2013-11-15 05:12:00,
2013-11-14 23:16:00,38.1,33.7,29.89,NW,319,1.0,2.0,84,0.00,,,0.00,0,WeatherCatV1.23B16,2013-11-15 05:16:00,
2013-11-14 23:17:00,38.2,34.1,29.89,NW,318,0.0,2.0,85,0.00,,,0.00,0,WeatherCatV1.23B16,2013-11-15 05:17:00,
2013-11-14 23:21:00,38.4,34.3,29.89,NW,319,0.0,1.0,85,0.00,,,0.00,0,WeatherCatV1.23B16,2013-11-15 05:21:00,
2013-11-14 23:22:00,38.4,34.3,29.89,NW,319,0.0,1.0,85,0.00,,,0.00,0,WeatherCatV1.23B16,2013-11-15 05:22:00,
2013-11-14 23:23:00,38.4,34.3,29.89,NW,319,1.0,2.0,85,0.00,,,0.00,0,WeatherCatV1.23B16,2013-11-15 05:23:00,
2013-11-14 23:26:00,38.4,34.3,29.89,NW,318,2.0,2.0,85,0.00,,,0.00,0,WeatherCatV1.23B16,2013-11-15 05:26:00,
2013-11-14 23:27:00,38.4,34.3,29.89,NW,319,1.0,2.0,85,0.00,,,0.00,0,WeatherCatV1.23B16,2013-11-15 05:27:00,
2013-11-14 23:28:00,38.4,34.3,29.89,NW,319,1.0,3.0,85,0.00,,,0.00,0,WeatherCatV1.23B16,2013-11-15 05:28:00,
2013-11-14 23:29:00,38.4,34.3,29.89,NW,318,2.0,3.0,85,0.00,,,0.00,0,WeatherCatV1.23B16,2013-11-15 05:29:00,
2013-11-14 23:31:00,38.5,34.4,29.89,NW,319,3.0,4.0,85,0.00,,,0.00,0,WeatherCatV1.23B16,2013-11-15 05:31:00,
2013-11-14 23:32:00,38.5,34.4,29.89,NW,319,0.0,4.0,85,0.00,,,0.00,0,WeatherCatV1.23B16,2013-11-15 05:32:00,
2013-11-14 23:33:00,38.5,34.4,29.89,NW,319,2.0,4.0,85,0.00,,,0.00,0,WeatherCatV1.23B16,2013-11-15 05:33:00,
2013-11-14 23:34:00,38.6,34.2,29.89,NW,318,1.0,4.0,84,0.00,,,0.00,0,WeatherCatV1.23B16,2013-11-15 05:34:00,
2013-11-14 23:36:00,38.5,34.1,29.89,NW,319,0.0,3.0,84,0.00,,,0.00,0,WeatherCatV1.23B16,2013-11-15 05:36:00,
2013-11-14 23:37:00,38.5,34.1,29.89,NW,319,2.0,3.0,84,0.00,,,0.00,0,WeatherCatV1.23B16,2013-11-15 05:37:00,
2013-11-14 23:38:00,38.5,34.1,29.89,NW,319,0.0,1.0,84,0.00,,,0.00,0,WeatherCatV1.23B16,2013-11-15 05:38:00,
2013-11-14 23:40:00,38.5,34.1,29.89,NW,319,0.0,2.0,84,0.00,,,0.00,0,WeatherCatV1.23B16,2013-11-15 05:40:00,
2013-11-14 23:41:00,38.4,34.0,29.88,NW,319,0.0,2.0,84,0.00,,,0.00,0,WeatherCatV1.23B16,2013-11-15 05:41:00,
2013-11-14 23:42:00,38.4,34.0,29.88,NW,318,0.0,1.0,84,0.00,,,0.00,0,WeatherCatV1.23B16,2013-11-15 05:42:00,
2013-11-14 23:43:00,38.4,34.0,29.88,NW,319,0.0,1.0,84,0.00,,,0.00,0,WeatherCatV1.23B16,2013-11-15 05:43:00,
2013-11-14 23:45:00,38.3,33.9,29.89,NW,319,1.0,3.0,84,0.00,,,0.00,0,WeatherCatV1.23B16,2013-11-15 05:45:00,
2013-11-14 23:46:00,38.3,33.9,29.88,NW,319,3.0,3.0,84,0.00,,,0.00,0,WeatherCatV1.23B16,2013-11-15 05:46:00,
2013-11-14 23:47:00,38.3,33.9,29.88,NW,319,0.0,3.0,84,0.00,,,0.00,0,WeatherCatV1.23B16,2013-11-15 05:47:00,
2013-11-14 23:48:00,38.3,33.9,29.88,NW,319,0.0,3.0,84,0.00,,,0.00,0,WeatherCatV1.23B16,2013-11-15 05:48:00,
2013-11-14 23:50:00,38.3,33.6,29.89,NW,318,1.0,1.0,83,0.00,,,0.00,0,WeatherCatV1.23B16,2013-11-15 05:50:00,
2013-11-14 23:51:00,38.2,33.5,29.89,NW,319,0.0,3.0,83,0.00,,,0.00,0,WeatherCatV1.23B16,2013-11-15 05:51:00,
2013-11-14 23:52:00,38.2,33.5,29.89,NW,319,0.0,3.0,83,0.00,,,0.00,0,WeatherCatV1.23B16,2013-11-15 05:52:00,
2013-11-14 23:53:00,38.2,33.5,29.89,NW,319,2.0,3.0,83,0.00,,,0.00,0,WeatherCatV1.23B16,2013-11-15 05:53:00,
2013-11-14 23:55:00,38.1,33.4,29.89,NW,318,2.0,2.0,83,0.00,,,0.00,0,WeatherCatV1.23B16,2013-11-15 05:55:00,
2013-11-14 23:56:00,38.2,33.5,29.89,NW,318,0.0,2.0,83,0.00,,,0.00,0,WeatherCatV1.23B16,2013-11-15 05:56:00,
2013-11-14 23:57:00,38.1,33.4,29.89,NW,319,1.0,2.0,83,0.00,,,0.00,0,WeatherCatV1.23B16,2013-11-15 05:57:00,
2013-11-14 23:58:00,38.1,33.4,29.89,NW,319,2.0,3.0,83,0.00,,,0.00,0,WeatherCatV1.23B16,2013-11-15 05:58:00,